Time,TemperatureF,DewpointF,PressureIn,WindDirection,WindDirectionDegrees,WindSpeedMPH,WindSpeedGustMPH,Humidity,HourlyPrecipIn,Conditions,Clouds,dailyrainin,SoftwareType,DateUTC
2013-07-02 00:00:00,67.8,42.6,30.18,SSW,213,5.4,6.3,40,0.00,,---,0.00,VWS V14.01,2013-07-02 06:00:00,
2013-07-02 00:01:00,67.6,42.5,30.18,SSW,196,5.8,6.3,40,0.00,,---,0.00,VWS V14.01,2013-07-02 06:01:00,
2013-07-02 00:04:00,67.6,42.5,30.18,SSW,192,5.4,6.3,40,0.00,,---,0.00,VWS V14.01,2013-07-02 06:04:00,
2013-07-02 00:05:00,67.6,42.5,30.18,SSW,197,5.4,6.3,40,0.00,,---,0.00,VWS V14.01,2013-07-02 06:05:00,
2013-07-02 00:06:00,67.6,42.5,30.18,SSW,198,3.1,6.3,40,0.00,,---,0.00,VWS V14.01,2013-07-02 06:06:00,
2013-07-02 00:09:00,67.6,42.5,30.18,SSW,194,4.0,6.3,40,0.00,,---,0.00,VWS V14.01,2013-07-02 06:09:00,
2013-07-02 00:10:00,67.6,42.5,30.18,SSW,196,2.7,6.3,40,0.00,,---,0.00,VWS V14.01,2013-07-02 06:10:00,
2013-07-02 00:11:00,67.6,42.5,30.18,SSW,192,3.1,6.3,40,0.00,,---,0.00,VWS V14.01,2013-07-02 06:11:00,
2013-07-02 00:14:00,67.5,42.3,30.18,SSW,198,3.6,6.3,40,0.00,,---,0.00,VWS V14.01,2013-07-02 06:14:00,
2013-07-02 00:15:00,67.5,42.3,30.18,SSW,195,5.4,5.4,40,0.00,,---,0.00,VWS V14.01,2013-07-02 06:15:00,
2013-07-02 00:16:00,67.5,42.3,30.18,South,189,4.0,5.4,40,0.00,,---,0.00,VWS V14.01,2013-07-02 06:16:00,
2013-07-02 00:20:00,67.5,42.3,30.18,SSW,198,4.0,5.4,40,0.00,,---,0.00,VWS V14.01,2013-07-02 06:20:00,
2013-07-02 00:21:00,67.5,42.3,30.18,SSW,195,4.0,5.4,40,0.00,,---,0.00,VWS V14.01,2013-07-02 06:21:00,
2013-07-02 00:22:00,67.5,42.3,30.18,South,186,3.6,5.4,40,0.00,,---,0.00,VWS V14.01,2013-07-02 06:22:00,
2013-07-02 00:25:00,67.3,42.8,30.18,SSW,198,4.9,5.4,41,0.00,,---,0.00,VWS V14.01,2013-07-02 06:25:00,
2013-07-02 00:26:00,67.3,42.8,30.18,SSW,193,3.6,5.4,41,0.00,,---,0.00,VWS V14.01,2013-07-02 06:26:00,
2013-07-02 00:27:00,67.1,42.6,30.18,SSW,198,3.6,5.4,41,0.00,,---,0.00,VWS V14.01,2013-07-02 06:27:00,
2013-07-02 00:30:00,67.3,42.8,30.18,SSW,195,3.6,5.4,41,0.00,,---,0.00,VWS V14.01,2013-07-02 06:30:00,
2013-07-02 00:31:00,67.3,42.8,30.18,South,190,4.0,4.9,41,0.00,,---,0.00,VWS V14.01,2013-07-02 06:31:00,
2013-07-02 00:33:00,67.5,42.3,30.18,SSW,194,4.0,4.9,40,0.00,,---,0.00,VWS V14.01,2013-07-02 06:33:00,
2013-07-02 00:36:00,67.3,42.2,30.18,SSW,194,6.3,6.3,40,0.00,,---,0.00,VWS V14.01,2013-07-02 06:36:00,
2013-07-02 00:37:00,67.3,42.2,30.18,South,189,7.6,7.6,40,0.00,,---,0.00,VWS V14.01,2013-07-02 06:37:00,
2013-07-02 00:38:00,67.3,42.2,30.18,SSW,197,6.3,7.6,40,0.00,,---,0.00,VWS V14.01,2013-07-02 06:38:00,
2013-07-02 00:41:00,67.3,42.8,30.18,SSW,194,5.8,7.6,41,0.00,,---,0.00,VWS V14.01,2013-07-02 06:41:00,
2013-07-02 00:42:00,67.3,42.8,30.18,SSW,201,5.8,7.6,41,0.00,,---,0.00,VWS V14.01,2013-07-02 06:42:00,
2013-07-02 00:43:00,67.1,42.6,30.18,South,189,5.4,8.1,41,0.00,,---,0.00,VWS V14.01,2013-07-02 06:43:00,
2013-07-02 00:46:00,66.9,42.5,30.18,SSW,196,5.8,5.8,41,0.00,,---,0.00,VWS V14.01,2013-07-02 06:46:00,
2013-07-02 00:47:00,66.9,42.5,30.18,SSW,203,5.8,5.8,41,0.00,,---,0.00,VWS V14.01,2013-07-02 06:47:00,
2013-07-02 00:48:00,66.7,42.9,30.18,South,187,3.6,5.8,42,0.00,,---,0.00,VWS V14.01,2013-07-02 06:48:00,
2013-07-02 00:51:00,66.7,42.9,30.18,SSW,194,6.3,6.3,42,0.00,,---,0.00,VWS V14.01,2013-07-02 06:51:00,
2013-07-02 00:52:00,66.7,42.9,30.18,South,182,5.8,6.3,42,0.00,,---,0.00,VWS V14.01,2013-07-02 06:52:00,
2013-07-02 00:53:00,66.9,43.1,30.18,SSW,210,5.4,6.3,42,0.00,,---,0.00,VWS V14.01,2013-07-02 06:53:00,
2013-07-02 00:56:00,66.9,42.5,30.18,South,190,5.4,6.3,41,0.00,,---,0.00,VWS V14.01,2013-07-02 06:56:00,
2013-07-02 00:57:00,66.9,42.5,30.18,South,191,6.3,6.3,41,0.00,,---,0.00,VWS V14.01,2013-07-02 06:57:00,
2013-07-02 00:58:00,66.9,42.5,30.18,South,188,5.4,6.3,41,0.00,,---,0.00,VWS V14.01,2013-07-02 06:58:00,
2013-07-02 01:01:00,66.7,42.9,30.18,South,181,6.3,7.6,42,0.00,,---,0.00,VWS V14.01,2013-07-02 07:01:00,
2013-07-02 01:02:00,66.7,42.9,30.18,SSW,202,5.8,7.6,42,0.00,,---,0.00,VWS V14.01,2013-07-02 07:02:00,
2013-07-02 01:03:00,66.7,42.9,30.18,SSW,195,4.9,7.6,42,0.00,,---,0.00,VWS V14.01,2013-07-02 07:03:00,
2013-07-02 01:06:00,66.7,42.9,30.18,SSW,196,5.8,7.6,42,0.00,,---,0.00,VWS V14.01,2013-07-02 07:06:00,
2013-07-02 01:07:00,66.7,42.9,30.18,SSW,196,5.8,7.6,42,0.00,,---,0.00,VWS V14.01,2013-07-02 07:07:00,
2013-07-02 01:08:00,66.7,42.3,30.18,SSW,201,5.4,7.6,41,0.00,,---,0.00,VWS V14.01,2013-07-02 07:08:00,
2013-07-02 01:09:00,66.7,42.3,30.18,SSW,201,5.4,7.6,41,0.00,,---,0.00,VWS V14.01,2013-07-02 07:09:00,
2013-07-02 01:11:00,66.7,42.9,30.18,SSW,197,5.8,7.6,42,0.00,,---,0.00,VWS V14.01,2013-07-02 07:11:00,
2013-07-02 01:12:00,66.7,42.9,30.18,SSW,193,5.4,7.6,42,0.00,,---,0.00,VWS V14.01,2013-07-02 07:12:00,
2013-07-02 01:13:00,66.7,42.9,30.18,SSW,195,4.0,7.6,42,0.00,,---,0.00,VWS V14.01,2013-07-02 07:13:00,
2013-07-02 01:14:00,66.6,42.8,30.18,SSW,197,4.9,7.6,42,0.00,,---,0.00,VWS V14.01,2013-07-02 07:14:00,
2013-07-02 01:17:00,66.6,42.8,30.18,SSW,196,4.9,6.3,42,0.00,,---,0.00,VWS V14.01,2013-07-02 07:17:00,
2013-07-02 01:18:00,66.4,42.6,30.18,South,186,4.5,6.3,42,0.00,,---,0.00,VWS V14.01,2013-07-02 07:18:00,
2013-07-02 01:19:00,66.4,42.6,30.18,South,185,5.8,6.3,42,0.00,,---,0.00,VWS V14.01,2013-07-02 07:19:00,
2013-07-02 01:22:00,66.4,43.2,30.18,SSW,195,4.9,6.3,43,0.00,,---,0.00,VWS V14.01,2013-07-02 07:22:00,
2013-07-02 01:23:00,66.4,43.2,30.18,SSW,192,5.8,6.3,43,0.00,,---,0.00,VWS V14.01,2013-07-02 07:23:00,
2013-07-02 01:24:00,66.4,43.2,30.18,SSW,202,5.4,6.3,43,0.00,,---,0.00,VWS V14.01,2013-07-02 07:24:00,
2013-07-02 01:27:00,66.4,43.2,30.18,SSW,204,4.9,6.3,43,0.00,,---,0.00,VWS V14.01,2013-07-02 07:27:00,
2013-07-02 01:28:00,66.4,43.2,30.18,SSW,200,4.0,6.3,43,0.00,,---,0.00,VWS V14.01,2013-07-02 07:28:00,
2013-07-02 01:29:00,66.4,42.6,30.18,SSW,211,3.6,6.3,42,0.00,,---,0.00,VWS V14.01,2013-07-02 07:29:00,
2013-07-02 01:32:00,66.6,42.8,30.18,SSW,199,4.9,5.4,42,0.00,,---,0.00,VWS V14.01,2013-07-02 07:32:00,
2013-07-02 01:33:00,66.7,42.9,30.18,SSW,201,4.9,5.8,42,0.00,,---,0.00,VWS V14.01,2013-07-02 07:33:00,
2013-07-02 01:34:00,66.9,43.1,30.18,SSW,200,4.0,5.8,42,0.00,,---,0.00,VWS V14.01,2013-07-02 07:34:00,
2013-07-02 01:35:00,66.9,43.1,30.18,SSW,199,4.0,5.8,42,0.00,,---,0.00,VWS V14.01,2013-07-02 07:35:00,
2013-07-02 01:37:00,67.1,42.6,30.18,SSW,193,4.0,5.8,41,0.00,,---,0.00,VWS V14.01,2013-07-02 07:37:00,
2013-07-02 01:38:00,67.1,42.6,30.18,SSW,194,4.9,5.8,41,0.00,,---,0.00,VWS V14.01,2013-07-02 07:38:00,
2013-07-02 01:40:00,67.1,42.0,30.18,SSW,200,4.0,5.8,40,0.00,,---,0.00,VWS V14.01,2013-07-02 07:40:00,
2013-07-02 01:42:00,67.3,42.2,30.18,SSW,194,2.7,5.8,40,0.00,,---,0.00,VWS V14.01,2013-07-02 07:42:00,
2013-07-02 01:44:00,67.3,42.2,30.18,SSW,193,3.1,5.8,40,0.00,,---,0.00,VWS V14.01,2013-07-02 07:44:00,
2013-07-02 01:45:00,67.3,42.2,30.18,SSW,193,2.2,5.8,40,0.00,,---,0.00,VWS V14.01,2013-07-02 07:45:00,
2013-07-02 01:47:00,67.3,42.2,30.18,SSW,192,3.6,4.5,40,0.00,,---,0.00,VWS V14.01,2013-07-02 07:47:00,
2013-07-02 01:49:00,67.3,42.2,30.18,SSW,195,3.6,4.5,40,0.00,,---,0.00,VWS V14.01,2013-07-02 07:49:00,
2013-07-02 01:50:00,67.1,42.6,30.18,SSW,195,3.6,4.5,41,0.00,,---,0.00,VWS V14.01,2013-07-02 07:50:00,
2013-07-02 01:53:00,66.7,42.3,30.18,SSW,195,2.7,4.5,41,0.00,,---,0.00,VWS V14.01,2013-07-02 07:53:00,
2013-07-02 01:54:00,66.7,42.9,30.18,SSW,195,2.7,4.5,42,0.00,,---,0.00,VWS V14.01,2013-07-02 07:54:00,
2013-07-02 01:55:00,66.6,42.8,30.18,SSW,193,2.2,4.5,42,0.00,,---,0.00,VWS V14.01,2013-07-02 07:55:00,
2013-07-02 01:56:00,66.6,42.8,30.18,SSW,193,0.0,4.5,42,0.00,,---,0.00,VWS V14.01,2013-07-02 07:56:00,
2013-07-02 01:58:00,66.2,43.1,30.18,SSW,197,3.1,4.5,43,0.00,,---,0.00,VWS V14.01,2013-07-02 07:58:00,
2013-07-02 01:59:00,66.2,43.1,30.18,SSW,195,2.2,4.5,43,0.00,,---,0.00,VWS V14.01,2013-07-02 07:59:00,
2013-07-02 02:00:00,66.2,43.1,30.18,SSW,195,2.7,4.5,43,0.00,,---,0.00,VWS V14.01,2013-07-02 08:00:00,
2013-07-02 02:01:00,65.8,42.7,30.18,SSW,196,4.0,4.0,43,0.00,,---,0.00,VWS V14.01,2013-07-02 08:01:00,
2013-07-02 02:03:00,65.5,43.0,30.18,South,186,2.7,4.0,44,0.00,,---,0.00,VWS V14.01,2013-07-02 08:03:00,
2013-07-02 02:04:00,65.5,43.0,30.18,SSW,198,3.1,4.0,44,0.00,,---,0.00,VWS V14.01,2013-07-02 08:04:00,
2013-07-02 02:05:00,65.3,42.8,30.18,South,185,5.4,5.4,44,0.00,,---,0.00,VWS V14.01,2013-07-02 08:05:00,
2013-07-02 02:06:00,65.1,43.3,30.18,South,191,4.0,5.8,45,0.00,,---,0.00,VWS V14.01,2013-07-02 08:06:00,
2013-07-02 02:09:00,65.1,43.3,30.18,SSW,200,5.8,6.3,45,0.00,,---,0.00,VWS V14.01,2013-07-02 08:09:00,
2013-07-02 02:10:00,65.1,43.3,30.18,SSW,197,5.8,6.3,45,0.00,,---,0.00,VWS V14.01,2013-07-02 08:10:00,
2013-07-02 02:12:00,65.1,43.3,30.18,SSW,192,5.8,6.3,45,0.00,,---,0.00,VWS V14.01,2013-07-02 08:12:00,
2013-07-02 02:14:00,65.1,43.3,30.18,SSW,194,5.8,6.3,45,0.00,,---,0.00,VWS V14.01,2013-07-02 08:14:00,
2013-07-02 02:15:00,65.1,43.3,30.18,South,186,5.4,5.4,45,0.00,,---,0.00,VWS V14.01,2013-07-02 08:15:00,
2013-07-02 02:17:00,65.1,43.3,30.18,SSW,196,5.8,8.1,45,0.00,,---,0.00,VWS V14.01,2013-07-02 08:17:00,
2013-07-02 02:19:00,65.1,43.3,30.18,SSW,195,4.9,8.1,45,0.00,,---,0.00,VWS V14.01,2013-07-02 08:19:00,
2013-07-02 02:20:00,65.1,43.3,30.18,SSW,197,4.0,8.1,45,0.00,,---,0.00,VWS V14.01,2013-07-02 08:20:00,
2013-07-02 02:21:00,65.1,43.3,30.18,SSW,197,4.9,8.1,45,0.00,,---,0.00,VWS V14.01,2013-07-02 08:21:00,
2013-07-02 02:22:00,65.1,43.3,30.18,SSW,194,4.0,8.1,45,0.00,,---,0.00,VWS V14.01,2013-07-02 08:22:00,
2013-07-02 02:24:00,65.5,43.6,30.18,SSW,197,0.0,8.1,45,0.00,,---,0.00,VWS V14.01,2013-07-02 08:24:00,
2013-07-02 02:25:00,65.5,43.6,30.18,SSW,197,0.0,8.1,45,0.00,,---,0.00,VWS V14.01,2013-07-02 08:25:00,
2013-07-02 02:26:00,65.5,43.6,30.18,South,178,3.1,8.1,45,0.00,,---,0.00,VWS V14.01,2013-07-02 08:26:00,
2013-07-02 02:27:00,65.3,43.4,30.18,South,184,2.7,8.1,45,0.00,,---,0.00,VWS V14.01,2013-07-02 08:27:00,
2013-07-02 02:29:00,65.3,43.4,30.18,South,188,3.1,8.1,45,0.00,,---,0.00,VWS V14.01,2013-07-02 08:29:00,
2013-07-02 02:30:00,65.3,43.4,30.18,South,188,3.1,3.1,45,0.00,,---,0.00,VWS V14.01,2013-07-02 08:30:00,
2013-07-02 02:31:00,65.3,43.4,30.18,South,186,2.7,3.1,45,0.00,,---,0.00,VWS V14.01,2013-07-02 08:31:00,
2013-07-02 02:33:00,65.1,43.3,30.18,South,187,4.0,4.0,45,0.00,,---,0.00,VWS V14.01,2013-07-02 08:33:00,
2013-07-02 02:35:00,65.1,43.3,30.18,SSW,197,3.1,4.0,45,0.00,,---,0.00,VWS V14.01,2013-07-02 08:35:00,
2013-07-02 02:36:00,65.1,43.3,30.18,SSW,192,4.0,4.0,45,0.00,,---,0.00,VWS V14.01,2013-07-02 08:36:00,
2013-07-02 02:38:00,64.9,43.1,30.18,SSW,196,4.0,4.9,45,0.00,,---,0.00,VWS V14.01,2013-07-02 08:38:00,
2013-07-02 02:40:00,64.6,43.4,30.18,SSW,196,3.1,5.4,46,0.00,,---,0.00,VWS V14.01,2013-07-02 08:40:00,
2013-07-02 02:41:00,64.6,43.4,30.18,SSE,162,2.7,5.4,46,0.00,,---,0.00,VWS V14.01,2013-07-02 08:41:00,
2013-07-02 02:43:00,64.4,43.2,30.18,South,188,3.1,5.4,46,0.00,,---,0.00,VWS V14.01,2013-07-02 08:43:00,
2013-07-02 02:46:00,64.0,43.4,30.18,South,187,3.1,4.9,47,0.00,,---,0.00,VWS V14.01,2013-07-02 08:46:00,
2013-07-02 02:47:00,64.0,43.4,30.18,SSW,198,5.4,5.4,47,0.00,,---,0.00,VWS V14.01,2013-07-02 08:47:00,
2013-07-02 02:48:00,63.9,43.3,30.18,South,190,4.9,5.4,47,0.00,,---,0.00,VWS V14.01,2013-07-02 08:48:00,
2013-07-02 02:51:00,63.9,43.8,30.18,SSW,203,4.0,5.4,48,0.00,,---,0.00,VWS V14.01,2013-07-02 08:51:00,
2013-07-02 02:52:00,63.9,43.8,30.18,South,186,5.4,5.8,48,0.00,,---,0.00,VWS V14.01,2013-07-02 08:52:00,
2013-07-02 02:54:00,63.9,43.8,30.18,SSW,195,4.9,5.8,48,0.00,,---,0.00,VWS V14.01,2013-07-02 08:54:00,
2013-07-02 02:56:00,63.9,43.8,30.18,SSW,199,3.1,5.8,48,0.00,,---,0.00,VWS V14.01,2013-07-02 08:56:00,
2013-07-02 02:57:00,64.0,43.4,30.18,SSW,199,3.1,5.8,47,0.00,,---,0.00,VWS V14.01,2013-07-02 08:57:00,
2013-07-02 02:59:00,64.0,43.4,30.18,SSW,194,3.1,5.8,47,0.00,,---,0.00,VWS V14.01,2013-07-02 08:59:00,
2013-07-02 03:01:00,64.2,43.6,30.18,SSW,195,3.6,4.0,47,0.00,,---,0.00,VWS V14.01,2013-07-02 09:01:00,
2013-07-02 03:02:00,64.2,43.6,30.18,SSW,194,4.0,4.0,47,0.00,,---,0.00,VWS V14.01,2013-07-02 09:02:00,
2013-07-02 03:04:00,64.2,43.6,30.15,SSW,196,4.0,5.8,47,0.00,,---,0.00,VWS V14.01,2013-07-02 09:04:00,
2013-07-02 03:06:00,64.2,43.6,30.15,SSW,196,5.4,5.8,47,0.00,,---,0.00,VWS V14.01,2013-07-02 09:06:00,
2013-07-02 03:07:00,64.2,43.6,30.15,SSW,195,3.1,5.8,47,0.00,,---,0.00,VWS V14.01,2013-07-02 09:07:00,
2013-07-02 03:10:00,64.4,43.2,30.15,South,186,2.2,5.8,46,0.00,,---,0.00,VWS V14.01,2013-07-02 09:10:00,
2013-07-02 03:12:00,64.4,43.2,30.15,South,188,0.0,5.8,46,0.00,,---,0.00,VWS V14.01,2013-07-02 09:12:00,
2013-07-02 03:15:00,64.0,43.4,30.15,SSW,192,3.6,5.8,47,0.00,,---,0.00,VWS V14.01,2013-07-02 09:15:00,
2013-07-02 03:17:00,63.9,43.8,30.15,SSW,192,4.0,5.4,48,0.00,,---,0.00,VWS V14.01,2013-07-02 09:17:00,
2013-07-02 03:18:00,63.9,43.8,30.15,SSW,197,4.0,5.4,48,0.00,,---,0.00,VWS V14.01,2013-07-02 09:18:00,
2013-07-02 03:20:00,64.0,43.4,30.15,South,189,5.4,5.4,47,0.00,,---,0.00,VWS V14.01,2013-07-02 09:20:00,
2013-07-02 03:22:00,64.2,43.6,30.15,South,191,4.0,5.8,47,0.00,,---,0.00,VWS V14.01,2013-07-02 09:22:00,
2013-07-02 03:23:00,64.2,43.6,30.15,South,177,3.1,5.8,47,0.00,,---,0.00,VWS V14.01,2013-07-02 09:23:00,
2013-07-02 03:25:00,64.4,43.2,30.15,South,172,2.7,5.8,46,0.00,,---,0.00,VWS V14.01,2013-07-02 09:25:00,
2013-07-02 03:27:00,64.4,43.8,30.15,South,185,2.2,5.8,47,0.00,,---,0.00,VWS V14.01,2013-07-02 09:27:00,
2013-07-02 03:28:00,64.2,43.6,30.15,South,178,2.7,5.8,47,0.00,,---,0.00,VWS V14.01,2013-07-02 09:28:00,
2013-07-02 03:30:00,64.0,43.4,30.15,South,180,3.1,3.6,47,0.00,,---,0.00,VWS V14.01,2013-07-02 09:30:00,
2013-07-02 03:32:00,63.9,43.8,30.15,SSW,196,3.6,4.5,48,0.00,,---,0.00,VWS V14.01,2013-07-02 09:32:00,
2013-07-02 03:33:00,63.7,43.6,30.15,SSW,196,3.6,4.5,48,0.00,,---,0.00,VWS V14.01,2013-07-02 09:33:00,
2013-07-02 03:36:00,63.7,43.6,30.15,South,172,2.7,5.8,48,0.00,,---,0.00,VWS V14.01,2013-07-02 09:36:00,
2013-07-02 03:37:00,63.7,43.6,30.15,SSW,195,4.9,5.8,48,0.00,,---,0.00,VWS V14.01,2013-07-02 09:37:00,
2013-07-02 03:38:00,63.5,43.5,30.15,SSW,198,4.0,5.8,48,0.00,,---,0.00,VWS V14.01,2013-07-02 09:38:00,
2013-07-02 03:41:00,63.5,44.0,30.15,SSW,196,3.6,5.8,49,0.00,,---,0.00,VWS V14.01,2013-07-02 09:41:00,
2013-07-02 03:42:00,63.5,44.0,30.15,SSW,194,4.9,5.8,49,0.00,,---,0.00,VWS V14.01,2013-07-02 09:42:00,
2013-07-02 03:43:00,63.5,44.0,30.15,SSW,199,3.6,5.8,49,0.00,,---,0.00,VWS V14.01,2013-07-02 09:43:00,
2013-07-02 03:44:00,63.5,44.0,30.15,SSW,199,4.0,5.8,49,0.00,,---,0.00,VWS V14.01,2013-07-02 09:44:00,
2013-07-02 03:46:00,63.7,44.2,30.15,SSW,197,4.0,4.9,49,0.00,,---,0.00,VWS V14.01,2013-07-02 09:46:00,
2013-07-02 03:48:00,63.7,44.2,30.15,South,191,3.1,4.9,49,0.00,,---,0.00,VWS V14.01,2013-07-02 09:48:00,
2013-07-02 03:49:00,63.7,44.2,30.15,SSW,196,2.7,4.9,49,0.00,,---,0.00,VWS V14.01,2013-07-02 09:49:00,
2013-07-02 03:51:00,63.7,43.6,30.15,SSW,192,3.6,5.4,48,0.00,,---,0.00,VWS V14.01,2013-07-02 09:51:00,
2013-07-02 03:54:00,63.9,43.8,30.15,SSW,202,4.0,5.4,48,0.00,,---,0.00,VWS V14.01,2013-07-02 09:54:00,
2013-07-02 03:57:00,63.7,43.6,30.15,SSW,195,4.0,5.8,48,0.00,,---,0.00,VWS V14.01,2013-07-02 09:57:00,
2013-07-02 03:59:00,63.7,43.6,30.15,South,189,2.7,5.8,48,0.00,,---,0.00,VWS V14.01,2013-07-02 09:59:00,
2013-07-02 04:00:00,63.7,43.6,30.15,South,187,3.1,5.8,48,0.00,,---,0.00,VWS V14.01,2013-07-02 10:00:00,
2013-07-02 04:02:00,63.7,43.6,30.15,South,191,3.6,3.6,48,0.00,,---,0.00,VWS V14.01,2013-07-02 10:02:00,
2013-07-02 04:04:00,63.7,43.6,30.15,South,190,3.1,4.0,48,0.00,,---,0.00,VWS V14.01,2013-07-02 10:04:00,
2013-07-02 04:05:00,63.7,43.6,30.15,South,173,2.7,4.0,48,0.00,,---,0.00,VWS V14.01,2013-07-02 10:05:00,
2013-07-02 04:07:00,63.5,44.0,30.15,South,191,3.6,4.0,49,0.00,,---,0.00,VWS V14.01,2013-07-02 10:07:00,
2013-07-02 04:09:00,63.3,43.8,30.15,SSW,196,4.0,4.0,49,0.00,,---,0.00,VWS V14.01,2013-07-02 10:09:00,
2013-07-02 04:10:00,63.3,43.8,30.15,South,190,3.6,4.0,49,0.00,,---,0.00,VWS V14.01,2013-07-02 10:10:00,
2013-07-02 04:12:00,63.1,44.2,30.15,SSW,210,2.7,4.9,50,0.00,,---,0.00,VWS V14.01,2013-07-02 10:12:00,
2013-07-02 04:14:00,63.1,44.2,30.15,SSW,203,5.4,5.4,50,0.00,,---,0.00,VWS V14.01,2013-07-02 10:14:00,
2013-07-02 04:15:00,63.1,44.2,30.15,SSE,165,3.6,5.4,50,0.00,,---,0.00,VWS V14.01,2013-07-02 10:15:00,
2013-07-02 04:17:00,63.1,44.2,30.15,South,188,5.4,6.3,50,0.00,,---,0.00,VWS V14.01,2013-07-02 10:17:00,
2013-07-02 04:20:00,63.1,43.7,30.15,SSW,202,4.9,6.3,49,0.00,,---,0.00,VWS V14.01,2013-07-02 10:20:00,
2013-07-02 04:22:00,63.0,43.5,30.15,South,185,4.0,6.3,49,0.00,,---,0.00,VWS V14.01,2013-07-02 10:22:00,
2013-07-02 04:25:00,62.8,43.9,30.15,South,191,4.0,6.3,50,0.00,,---,0.00,VWS V14.01,2013-07-02 10:25:00,
2013-07-02 04:26:00,62.8,43.9,30.15,South,185,3.6,6.3,50,0.00,,---,0.00,VWS V14.01,2013-07-02 10:26:00,
2013-07-02 04:27:00,62.8,44.4,30.15,South,190,5.8,6.3,51,0.00,,---,0.00,VWS V14.01,2013-07-02 10:27:00,
2013-07-02 04:30:00,62.6,44.2,30.15,SSW,192,4.0,4.0,51,0.00,,---,0.00,VWS V14.01,2013-07-02 10:30:00,
2013-07-02 04:31:00,62.6,44.2,30.15,SSW,199,4.9,4.9,51,0.00,,---,0.00,VWS V14.01,2013-07-02 10:31:00,
2013-07-02 04:32:00,62.6,44.2,30.15,SSW,198,5.4,5.4,51,0.00,,---,0.00,VWS V14.01,2013-07-02 10:32:00,
2013-07-02 04:35:00,62.8,44.4,30.15,SSW,203,6.3,6.7,51,0.00,,---,0.00,VWS V14.01,2013-07-02 10:35:00,
2013-07-02 04:36:00,62.8,44.4,30.15,South,189,5.4,6.7,51,0.00,,---,0.00,VWS V14.01,2013-07-02 10:36:00,
2013-07-02 04:37:00,62.8,44.4,30.15,SSW,196,3.6,6.7,51,0.00,,---,0.00,VWS V14.01,2013-07-02 10:37:00,
2013-07-02 04:38:00,62.6,44.2,30.15,South,191,4.0,6.7,51,0.00,,---,0.00,VWS V14.01,2013-07-02 10:38:00,
2013-07-02 04:40:00,62.6,44.2,30.15,South,186,2.7,6.7,51,0.00,,---,0.00,VWS V14.01,2013-07-02 10:40:00,
2013-07-02 04:41:00,62.6,44.2,30.15,South,186,3.6,6.7,51,0.00,,---,0.00,VWS V14.01,2013-07-02 10:41:00,
2013-07-02 04:42:00,62.4,44.6,30.15,South,188,3.6,6.7,52,0.00,,---,0.00,VWS V14.01,2013-07-02 10:42:00,
2013-07-02 04:43:00,62.4,44.6,30.15,South,190,7.6,7.6,52,0.00,,---,0.00,VWS V14.01,2013-07-02 10:43:00,
2013-07-02 04:46:00,62.4,44.6,30.15,SSW,197,4.9,5.4,52,0.00,,---,0.00,VWS V14.01,2013-07-02 10:46:00,
2013-07-02 04:47:00,62.4,44.6,30.15,SSW,193,5.8,5.8,52,0.00,,---,0.00,VWS V14.01,2013-07-02 10:47:00,
2013-07-02 04:48:00,62.4,44.6,30.15,SSW,195,4.0,5.8,52,0.00,,---,0.00,VWS V14.01,2013-07-02 10:48:00,
2013-07-02 04:51:00,62.6,44.2,30.15,SSW,200,5.4,6.3,51,0.00,,---,0.00,VWS V14.01,2013-07-02 10:51:00,
2013-07-02 04:52:00,62.6,44.2,30.15,South,188,4.0,6.3,51,0.00,,---,0.00,VWS V14.01,2013-07-02 10:52:00,
2013-07-02 04:53:00,62.8,43.9,30.15,South,188,4.5,6.3,50,0.00,,---,0.00,VWS V14.01,2013-07-02 10:53:00,
2013-07-02 04:56:00,62.8,44.4,30.15,SSW,195,3.6,6.3,51,0.00,,---,0.00,VWS V14.01,2013-07-02 10:56:00,
2013-07-02 04:57:00,62.8,43.9,30.15,SSW,192,5.4,6.3,50,0.00,,---,0.00,VWS V14.01,2013-07-02 10:57:00,
2013-07-02 04:58:00,62.8,43.9,30.15,SSW,194,4.0,6.3,50,0.00,,---,0.00,VWS V14.01,2013-07-02 10:58:00,
2013-07-02 05:01:00,62.6,43.7,30.15,South,185,4.0,4.0,50,0.00,,---,0.00,VWS V14.01,2013-07-02 11:01:00,
2013-07-02 05:03:00,62.6,44.2,30.15,South,187,4.0,4.0,51,0.00,,---,0.00,VWS V14.01,2013-07-02 11:03:00,
2013-07-02 05:04:00,62.6,44.2,30.15,SSW,198,5.8,5.8,51,0.00,,---,0.00,VWS V14.01,2013-07-02 11:04:00,
2013-07-02 05:06:00,62.6,44.2,30.15,South,182,5.4,5.8,51,0.00,,---,0.00,VWS V14.01,2013-07-02 11:06:00,
2013-07-02 05:08:00,62.6,44.2,30.15,SSW,206,4.0,5.8,51,0.00,,---,0.00,VWS V14.01,2013-07-02 11:08:00,
2013-07-02 05:09:00,62.6,44.2,30.15,SSW,198,5.4,5.8,51,0.00,,---,0.00,VWS V14.01,2013-07-02 11:09:00,
2013-07-02 05:11:00,62.6,43.7,30.15,SSW,198,3.1,5.8,50,0.00,,---,0.00,VWS V14.01,2013-07-02 11:11:00,
2013-07-02 05:12:00,62.6,43.7,30.15,SSW,195,4.0,5.8,50,0.00,,---,0.00,VWS V14.01,2013-07-02 11:12:00,
2013-07-02 05:13:00,62.4,44.1,30.15,SSW,194,0.0,5.8,51,0.00,,---,0.00,VWS V14.01,2013-07-02 11:13:00,
2013-07-02 05:15:00,62.2,43.9,30.15,SSW,194,3.1,5.8,51,0.00,,---,0.00,VWS V14.01,2013-07-02 11:15:00,
2013-07-02 05:16:00,62.1,44.2,30.15,SSW,196,3.6,3.6,52,0.00,,---,0.00,VWS V14.01,2013-07-02 11:16:00,
2013-07-02 05:17:00,62.1,44.2,30.15,South,178,3.1,3.6,52,0.00,,---,0.00,VWS V14.01,2013-07-02 11:17:00,
2013-07-02 05:18:00,61.9,44.1,30.15,SSW,196,3.1,4.0,52,0.00,,---,0.00,VWS V14.01,2013-07-02 11:18:00,
2013-07-02 05:20:00,61.9,44.1,30.15,SSW,194,5.4,5.8,52,0.00,,---,0.00,VWS V14.01,2013-07-02 11:20:00,
2013-07-02 05:21:00,61.9,44.6,30.15,SSW,193,3.6,5.8,53,0.00,,---,0.00,VWS V14.01,2013-07-02 11:21:00,
2013-07-02 05:22:00,61.9,44.6,30.15,SSW,197,3.6,5.8,53,0.00,,---,0.00,VWS V14.01,2013-07-02 11:22:00,
2013-07-02 05:23:00,61.9,44.6,30.15,SSW,198,4.9,5.8,53,0.00,,---,0.00,VWS V14.01,2013-07-02 11:23:00,
2013-07-02 05:25:00,61.7,44.4,30.15,SSW,195,3.1,5.8,53,0.00,,---,0.00,VWS V14.01,2013-07-02 11:25:00,
2013-07-02 05:26:00,61.7,44.4,30.15,SSW,195,3.1,5.8,53,0.00,,---,0.00,VWS V14.01,2013-07-02 11:26:00,
2013-07-02 05:27:00,61.7,44.4,30.15,SSW,196,4.0,5.8,53,0.00,,---,0.00,VWS V14.01,2013-07-02 11:27:00,
2013-07-02 05:28:00,61.7,44.4,30.15,SSW,202,3.6,5.8,53,0.00,,---,0.00,VWS V14.01,2013-07-02 11:28:00,
2013-07-02 05:29:00,61.7,44.4,30.15,SSW,207,4.9,5.8,53,0.00,,---,0.00,VWS V14.01,2013-07-02 11:29:00,
2013-07-02 05:30:00,61.7,44.4,30.15,South,189,5.4,5.4,53,0.00,,---,0.00,VWS V14.01,2013-07-02 11:30:00,
2013-07-02 05:31:00,61.7,44.4,30.15,SSW,197,4.0,5.8,53,0.00,,---,0.00,VWS V14.01,2013-07-02 11:31:00,
2013-07-02 05:32:00,61.7,44.4,30.15,SSW,195,3.6,5.8,53,0.00,,---,0.00,VWS V14.01,2013-07-02 11:32:00,
2013-07-02 05:33:00,61.7,44.4,30.15,SSW,202,4.0,5.8,53,0.00,,---,0.00,VWS V14.01,2013-07-02 11:33:00,
2013-07-02 05:34:00,61.9,44.6,30.15,SSW,196,3.6,5.8,53,0.00,,---,0.00,VWS V14.01,2013-07-02 11:34:00,
2013-07-02 05:35:00,61.9,44.6,30.15,South,190,3.6,5.8,53,0.00,,---,0.00,VWS V14.01,2013-07-02 11:35:00,
2013-07-02 05:36:00,61.9,44.6,30.15,South,190,3.6,5.8,53,0.00,,---,0.00,VWS V14.01,2013-07-02 11:36:00,
2013-07-02 05:37:00,61.9,44.6,30.15,SSW,197,3.6,5.8,53,0.00,,---,0.00,VWS V14.01,2013-07-02 11:37:00,
2013-07-02 05:38:00,61.9,44.6,30.15,SSW,204,3.1,5.8,53,0.00,,---,0.00,VWS V14.01,2013-07-02 11:38:00,
2013-07-02 05:39:00,61.9,44.6,30.15,SSW,196,4.0,5.8,53,0.00,,---,0.00,VWS V14.01,2013-07-02 11:39:00,
2013-07-02 05:41:00,61.9,44.6,30.15,SSW,197,2.7,5.8,53,0.00,,---,0.00,VWS V14.01,2013-07-02 11:41:00,
2013-07-02 05:42:00,61.9,44.1,30.15,SSW,195,3.6,5.8,52,0.00,,---,0.00,VWS V14.01,2013-07-02 11:42:00,
2013-07-02 05:43:00,61.9,44.1,30.15,SSW,194,3.1,5.8,52,0.00,,---,0.00,VWS V14.01,2013-07-02 11:43:00,
2013-07-02 05:45:00,61.9,44.1,30.15,SSW,210,3.6,5.8,52,0.00,,---,0.00,VWS V14.01,2013-07-02 11:45:00,
2013-07-02 05:46:00,61.9,44.1,30.15,SSW,195,3.6,4.0,52,0.00,,---,0.00,VWS V14.01,2013-07-02 11:46:00,
2013-07-02 05:47:00,61.9,44.1,30.15,SSW,196,3.6,4.0,52,0.00,,---,0.00,VWS V14.01,2013-07-02 11:47:00,
2013-07-02 05:48:00,61.9,44.1,30.15,SSW,196,3.6,4.0,52,0.00,,---,0.00,VWS V14.01,2013-07-02 11:48:00,
2013-07-02 05:49:00,61.9,44.1,30.15,SSW,194,3.6,4.0,52,0.00,,---,0.00,VWS V14.01,2013-07-02 11:49:00,
2013-07-02 05:50:00,61.9,44.1,30.15,SSW,194,2.7,4.0,52,0.00,,---,0.00,VWS V14.01,2013-07-02 11:50:00,
2013-07-02 05:51:00,61.9,44.1,30.15,SSW,196,2.7,4.0,52,0.00,,---,0.00,VWS V14.01,2013-07-02 11:51:00,
2013-07-02 05:53:00,61.9,44.1,30.15,SSW,196,3.6,4.0,52,0.00,,---,0.00,VWS V14.01,2013-07-02 11:53:00,
2013-07-02 05:54:00,61.9,44.1,30.15,SSW,193,2.7,4.0,52,0.00,,---,0.00,VWS V14.01,2013-07-02 11:54:00,
2013-07-02 05:55:00,61.9,44.1,30.15,SSW,193,2.2,4.0,52,0.00,,---,0.00,VWS V14.01,2013-07-02 11:55:00,
2013-07-02 05:57:00,62.1,44.2,30.15,SSW,193,0.0,4.0,52,0.00,,---,0.00,VWS V14.01,2013-07-02 11:57:00,
2013-07-02 05:58:00,62.1,44.2,30.15,SSW,193,0.0,4.0,52,0.00,,---,0.00,VWS V14.01,2013-07-02 11:58:00,
2013-07-02 05:59:00,62.2,44.4,30.15,SSW,193,2.2,4.0,52,0.00,,---,0.00,VWS V14.01,2013-07-02 11:59:00,
2013-07-02 06:00:00,62.2,44.4,30.15,SSW,193,2.2,2.2,52,0.00,,---,0.00,VWS V14.01,2013-07-02 12:00:00,
2013-07-02 06:02:00,62.2,44.4,30.15,SSW,193,0.0,2.2,52,0.00,,---,0.00,VWS V14.01,2013-07-02 12:02:00,
2013-07-02 06:03:00,62.2,44.4,30.15,SSW,193,3.1,3.1,52,0.00,,---,0.00,VWS V14.01,2013-07-02 12:03:00,
2013-07-02 06:04:00,62.2,44.9,30.15,South,181,2.7,3.1,53,0.00,,---,0.00,VWS V14.01,2013-07-02 12:04:00,
2013-07-02 06:06:00,62.2,44.9,30.15,South,181,2.2,3.1,53,0.00,,---,0.00,VWS V14.01,2013-07-02 12:06:00,
2013-07-02 06:08:00,62.1,44.8,30.15,South,181,2.2,3.1,53,0.00,,---,0.00,VWS V14.01,2013-07-02 12:08:00,
2013-07-02 06:09:00,62.1,44.8,30.15,South,181,0.0,3.1,53,0.00,,---,0.00,VWS V14.01,2013-07-02 12:09:00,
2013-07-02 06:11:00,61.9,44.6,30.15,South,181,0.0,3.1,53,0.00,,---,0.00,VWS V14.01,2013-07-02 12:11:00,
2013-07-02 06:13:00,61.7,44.9,30.15,South,181,2.2,3.1,54,0.00,,---,0.00,VWS V14.01,2013-07-02 12:13:00,
2013-07-02 06:15:00,61.7,45.4,30.15,South,181,2.2,3.1,55,0.00,,---,0.00,VWS V14.01,2013-07-02 12:15:00,
2013-07-02 06:16:00,61.7,45.4,30.15,South,181,0.0,2.2,55,0.00,,---,0.00,VWS V14.01,2013-07-02 12:16:00,
2013-07-02 06:18:00,61.5,45.2,30.15,South,181,0.0,2.2,55,0.00,,---,0.00,VWS V14.01,2013-07-02 12:18:00,
2013-07-02 06:19:00,61.5,45.2,30.15,South,183,3.1,3.1,55,0.00,,---,0.00,VWS V14.01,2013-07-02 12:19:00,
2013-07-02 06:20:00,61.5,45.7,30.15,South,184,2.7,3.1,56,0.00,,---,0.00,VWS V14.01,2013-07-02 12:20:00,
2013-07-02 06:21:00,61.5,45.7,30.15,SSW,193,2.7,3.1,56,0.00,,---,0.00,VWS V14.01,2013-07-02 12:21:00,
2013-07-02 06:23:00,61.5,45.7,30.15,SSW,192,3.1,3.1,56,0.00,,---,0.00,VWS V14.01,2013-07-02 12:23:00,
2013-07-02 06:24:00,61.5,45.7,30.15,SSW,192,3.1,3.1,56,0.00,,---,0.00,VWS V14.01,2013-07-02 12:24:00,
2013-07-02 06:25:00,61.5,45.7,30.15,SSW,192,3.1,3.1,56,0.00,,---,0.00,VWS V14.01,2013-07-02 12:25:00,
2013-07-02 06:27:00,61.5,45.7,30.15,South,186,2.7,3.6,56,0.00,,---,0.00,VWS V14.01,2013-07-02 12:27:00,
2013-07-02 06:28:00,61.5,45.7,30.15,South,186,2.7,3.6,56,0.00,,---,0.00,VWS V14.01,2013-07-02 12:28:00,
2013-07-02 06:29:00,61.5,45.7,30.15,South,186,2.7,3.6,56,0.00,,---,0.00,VWS V14.01,2013-07-02 12:29:00,
2013-07-02 06:30:00,61.5,45.7,30.15,South,184,3.1,3.6,56,0.00,,---,0.00,VWS V14.01,2013-07-02 12:30:00,
2013-07-02 06:32:00,61.5,45.7,30.15,South,189,0.0,2.7,56,0.00,,---,0.00,VWS V14.01,2013-07-02 12:32:00,
2013-07-02 06:33:00,61.5,45.7,30.15,South,189,2.7,2.7,56,0.00,,---,0.00,VWS V14.01,2013-07-02 12:33:00,
2013-07-02 06:34:00,61.5,46.2,30.15,SSW,192,3.6,3.6,57,0.00,,---,0.00,VWS V14.01,2013-07-02 12:34:00,
2013-07-02 06:35:00,61.5,46.2,30.15,SSW,192,3.6,3.6,57,0.00,,---,0.00,VWS V14.01,2013-07-02 12:35:00,
2013-07-02 06:37:00,61.7,45.9,30.15,SSW,192,2.7,5.4,56,0.00,,---,0.00,VWS V14.01,2013-07-02 12:37:00,
2013-07-02 06:38:00,61.7,45.9,30.15,South,185,3.1,5.4,56,0.00,,---,0.00,VWS V14.01,2013-07-02 12:38:00,
2013-07-02 06:39:00,61.7,45.9,30.15,SSW,195,3.1,5.4,56,0.00,,---,0.00,VWS V14.01,2013-07-02 12:39:00,
2013-07-02 06:40:00,61.7,45.9,30.15,SSW,196,3.1,5.4,56,0.00,,---,0.00,VWS V14.01,2013-07-02 12:40:00,
2013-07-02 06:42:00,61.9,45.5,30.15,SSW,196,2.7,5.4,55,0.00,,---,0.00,VWS V14.01,2013-07-02 12:42:00,
2013-07-02 06:43:00,61.9,45.5,30.15,SSW,195,4.0,5.4,55,0.00,,---,0.00,VWS V14.01,2013-07-02 12:43:00,
2013-07-02 06:45:00,62.1,45.2,30.15,SSW,196,3.1,5.4,54,0.00,,---,0.00,VWS V14.01,2013-07-02 12:45:00,
2013-07-02 06:47:00,62.1,45.2,30.15,South,191,3.6,4.5,54,0.00,,---,0.00,VWS V14.01,2013-07-02 12:47:00,
2013-07-02 06:48:00,62.1,45.2,30.15,SSW,195,3.1,4.5,54,0.00,,---,0.00,VWS V14.01,2013-07-02 12:48:00,
2013-07-02 06:50:00,62.2,45.4,30.15,SSW,195,4.0,4.5,54,0.00,,---,0.00,VWS V14.01,2013-07-02 12:50:00,
2013-07-02 06:51:00,62.2,45.4,30.15,SSW,198,2.7,4.5,54,0.00,,---,0.00,VWS V14.01,2013-07-02 12:51:00,
2013-07-02 06:52:00,62.2,45.4,30.15,SSW,197,4.0,4.5,54,0.00,,---,0.00,VWS V14.01,2013-07-02 12:52:00,
2013-07-02 06:54:00,62.2,45.4,30.15,SSW,198,3.1,4.5,54,0.00,,---,0.00,VWS V14.01,2013-07-02 12:54:00,
2013-07-02 06:55:00,62.2,45.4,30.15,SSW,198,0.0,4.5,54,0.00,,---,0.00,VWS V14.01,2013-07-02 12:55:00,
2013-07-02 06:56:00,62.2,45.4,30.15,SSW,198,0.0,4.5,54,0.00,,---,0.00,VWS V14.01,2013-07-02 12:56:00,
2013-07-02 06:57:00,62.6,45.7,30.15,South,186,2.7,4.5,54,0.00,,---,0.00,VWS V14.01,2013-07-02 12:57:00,
2013-07-02 06:59:00,62.6,45.7,30.15,SSW,197,4.0,4.5,54,0.00,,---,0.00,VWS V14.01,2013-07-02 12:59:00,
2013-07-02 07:00:00,62.8,45.9,30.15,SSW,196,2.2,3.1,54,0.00,,---,0.00,VWS V14.01,2013-07-02 13:00:00,
2013-07-02 07:01:00,62.8,45.9,30.15,SSW,196,2.7,3.1,54,0.00,,---,0.00,VWS V14.01,2013-07-02 13:01:00,
2013-07-02 07:02:00,63.0,46.1,30.15,SSW,195,2.7,3.1,54,0.00,,---,0.00,VWS V14.01,2013-07-02 13:02:00,
2013-07-02 07:04:00,63.1,46.2,30.15,SSW,194,2.2,3.6,54,0.00,,---,0.00,VWS V14.01,2013-07-02 13:04:00,
2013-07-02 07:06:00,63.1,46.2,30.15,SSW,194,2.2,3.6,54,0.00,,---,0.00,VWS V14.01,2013-07-02 13:06:00,
2013-07-02 07:07:00,63.3,45.9,30.15,South,190,2.2,3.6,53,0.00,,---,0.00,VWS V14.01,2013-07-02 13:07:00,
2013-07-02 07:09:00,63.5,46.1,30.15,South,190,2.7,3.6,53,0.00,,---,0.00,VWS V14.01,2013-07-02 13:09:00,
2013-07-02 07:11:00,63.7,46.2,30.15,South,185,2.7,3.6,53,0.00,,---,0.00,VWS V14.01,2013-07-02 13:11:00,
2013-07-02 07:13:00,64.0,45.6,30.15,South,184,2.7,3.6,51,0.00,,---,0.00,VWS V14.01,2013-07-02 13:13:00,
2013-07-02 07:14:00,64.2,45.2,30.15,South,185,2.7,3.6,50,0.00,,---,0.00,VWS V14.01,2013-07-02 13:14:00,
2013-07-02 07:16:00,64.6,45.5,30.15,South,185,0.0,2.2,50,0.00,,---,0.00,VWS V14.01,2013-07-02 13:16:00,
2013-07-02 07:17:00,64.6,45.5,30.15,South,185,2.7,2.7,50,0.00,,---,0.00,VWS V14.01,2013-07-02 13:17:00,
2013-07-02 07:18:00,64.8,45.2,30.15,South,185,2.2,2.7,49,0.00,,---,0.00,VWS V14.01,2013-07-02 13:18:00,
2013-07-02 07:19:00,65.1,45.5,30.15,South,185,0.0,2.7,49,0.00,,---,0.00,VWS V14.01,2013-07-02 13:19:00,
2013-07-02 07:21:00,65.3,45.1,30.15,South,185,0.0,2.7,48,0.00,,---,0.00,VWS V14.01,2013-07-02 13:21:00,
2013-07-02 07:22:00,65.3,45.1,30.15,South,185,0.0,2.7,48,0.00,,---,0.00,VWS V14.01,2013-07-02 13:22:00,
2013-07-02 07:23:00,65.5,45.3,30.15,South,185,0.0,2.7,48,0.00,,---,0.00,VWS V14.01,2013-07-02 13:23:00,
2013-07-02 07:25:00,65.7,45.5,30.15,South,178,0.0,2.7,48,0.00,,---,0.00,VWS V14.01,2013-07-02 13:25:00,
2013-07-02 07:26:00,65.7,45.5,30.15,South,178,0.0,2.7,48,0.00,,---,0.00,VWS V14.01,2013-07-02 13:26:00,
2013-07-02 07:27:00,65.7,45.5,30.15,South,178,0.0,2.7,48,0.00,,---,0.00,VWS V14.01,2013-07-02 13:27:00,
2013-07-02 07:28:00,65.7,45.5,30.15,South,178,0.0,2.7,48,0.00,,---,0.00,VWS V14.01,2013-07-02 13:28:00,
2013-07-02 07:29:00,65.7,45.5,30.15,South,181,2.7,2.7,48,0.00,,---,0.00,VWS V14.01,2013-07-02 13:29:00,
2013-07-02 07:32:00,65.8,45.1,30.15,South,185,2.2,3.1,47,0.00,,---,0.00,VWS V14.01,2013-07-02 13:32:00,
2013-07-02 07:33:00,65.8,45.6,30.15,South,185,2.2,3.1,48,0.00,,---,0.00,VWS V14.01,2013-07-02 13:33:00,
2013-07-02 07:35:00,66.0,45.2,30.15,South,183,2.7,3.1,47,0.00,,---,0.00,VWS V14.01,2013-07-02 13:35:00,
2013-07-02 07:37:00,66.4,45.0,30.15,South,188,2.7,3.1,46,0.00,,---,0.00,VWS V14.01,2013-07-02 13:37:00,
2013-07-02 07:38:00,66.4,45.0,30.15,South,188,2.7,3.1,46,0.00,,---,0.00,VWS V14.01,2013-07-02 13:38:00,
2013-07-02 07:39:00,66.6,45.2,30.15,SSW,203,2.7,3.1,46,0.00,,---,0.00,VWS V14.01,2013-07-02 13:39:00,
2013-07-02 07:40:00,66.7,45.3,30.15,SSW,203,2.7,3.1,46,0.00,,---,0.00,VWS V14.01,2013-07-02 13:40:00,
2013-07-02 07:43:00,67.1,45.1,30.15,SSW,203,0.0,3.1,45,0.00,,---,0.00,VWS V14.01,2013-07-02 13:43:00,
2013-07-02 07:44:00,67.1,45.1,30.15,SSW,203,0.0,3.1,45,0.00,,---,0.00,VWS V14.01,2013-07-02 13:44:00,
2013-07-02 07:45:00,67.3,45.2,30.15,SSW,201,2.7,3.1,45,0.00,,---,0.00,VWS V14.01,2013-07-02 13:45:00,
2013-07-02 07:48:00,67.5,45.4,30.15,SSW,201,0.0,3.1,45,0.00,,---,0.00,VWS V14.01,2013-07-02 13:48:00,
2013-07-02 07:49:00,67.5,45.4,30.15,SSW,201,0.0,3.1,45,0.00,,---,0.00,VWS V14.01,2013-07-02 13:49:00,
2013-07-02 07:50:00,67.6,45.6,30.15,SSW,201,2.2,3.1,45,0.00,,---,0.00,VWS V14.01,2013-07-02 13:50:00,
2013-07-02 07:53:00,67.8,45.1,30.15,SSW,201,0.0,3.1,44,0.00,,---,0.00,VWS V14.01,2013-07-02 13:53:00,
2013-07-02 07:54:00,67.8,45.1,30.15,SSW,201,0.0,3.1,44,0.00,,---,0.00,VWS V14.01,2013-07-02 13:54:00,
2013-07-02 07:56:00,68.0,45.3,30.15,South,185,0.0,3.1,44,0.00,,---,0.00,VWS V14.01,2013-07-02 13:56:00,
2013-07-02 07:58:00,68.2,45.5,30.15,South,185,0.0,3.1,44,0.00,,---,0.00,VWS V14.01,2013-07-02 13:58:00,
2013-07-02 07:59:00,68.4,45.6,30.15,South,185,0.0,3.1,44,0.00,,---,0.00,VWS V14.01,2013-07-02 13:59:00,
2013-07-02 08:01:00,68.5,45.8,30.15,South,185,0.0,0.0,44,0.00,,---,0.00,VWS V14.01,2013-07-02 14:01:00,
2013-07-02 08:03:00,68.9,46.1,30.15,South,184,0.0,0.0,44,0.00,,---,0.00,VWS V14.01,2013-07-02 14:03:00,
2013-07-02 08:04:00,68.9,45.5,30.15,South,178,2.7,2.7,43,0.00,,---,0.00,VWS V14.01,2013-07-02 14:04:00,
2013-07-02 08:06:00,69.3,45.8,30.15,South,178,0.0,2.7,43,0.00,,---,0.00,VWS V14.01,2013-07-02 14:06:00,
2013-07-02 08:08:00,69.4,45.4,30.15,South,178,0.0,2.7,42,0.00,,---,0.00,VWS V14.01,2013-07-02 14:08:00,
2013-07-02 08:09:00,69.4,45.4,30.15,South,178,0.0,2.7,42,0.00,,---,0.00,VWS V14.01,2013-07-02 14:09:00,
2013-07-02 08:11:00,69.8,45.1,30.15,South,178,0.0,2.7,41,0.00,,---,0.00,VWS V14.01,2013-07-02 14:11:00,
2013-07-02 08:13:00,70.0,44.6,30.15,South,178,0.0,2.7,40,0.00,,---,0.00,VWS V14.01,2013-07-02 14:13:00,
2013-07-02 08:14:00,70.0,44.6,30.15,South,178,0.0,2.7,40,0.00,,---,0.00,VWS V14.01,2013-07-02 14:14:00,
2013-07-02 08:15:00,70.2,45.4,30.15,South,178,0.0,2.7,41,0.00,,---,0.00,VWS V14.01,2013-07-02 14:15:00,
2013-07-02 08:16:00,70.2,45.4,30.15,South,178,3.1,3.1,41,0.00,,---,0.00,VWS V14.01,2013-07-02 14:16:00,
2013-07-02 08:18:00,70.0,44.6,30.15,NNE,14,3.6,3.6,40,0.00,,---,0.00,VWS V14.01,2013-07-02 14:18:00,
2013-07-02 08:19:00,70.0,44.6,30.15,NNE,13,2.7,3.6,40,0.00,,---,0.00,VWS V14.01,2013-07-02 14:19:00,
2013-07-02 08:20:00,70.0,44.6,30.15,North,11,2.2,3.6,40,0.00,,---,0.00,VWS V14.01,2013-07-02 14:20:00,
2013-07-02 08:21:00,70.0,45.2,30.15,North,10,2.2,3.6,41,0.00,,---,0.00,VWS V14.01,2013-07-02 14:21:00,
2013-07-02 08:23:00,69.8,44.4,30.15,NNE,12,2.2,3.6,40,0.00,,---,0.00,VWS V14.01,2013-07-02 14:23:00,
2013-07-02 08:24:00,70.0,45.2,30.15,NNE,14,3.1,3.6,41,0.00,,---,0.00,VWS V14.01,2013-07-02 14:24:00,
2013-07-02 08:25:00,70.0,45.2,30.15,North,11,2.7,3.6,41,0.00,,---,0.00,VWS V14.01,2013-07-02 14:25:00,
2013-07-02 08:27:00,70.0,44.6,30.15,NNE,18,3.6,3.6,40,0.00,,---,0.00,VWS V14.01,2013-07-02 14:27:00,
2013-07-02 08:29:00,70.2,44.7,30.15,North,2,3.1,4.0,40,0.00,,---,0.00,VWS V14.01,2013-07-02 14:29:00,
2013-07-02 08:30:00,70.2,45.4,30.15,North,2,2.7,4.0,41,0.00,,---,0.00,VWS V14.01,2013-07-02 14:30:00,
2013-07-02 08:32:00,70.2,45.4,30.15,NNE,20,0.0,3.1,41,0.00,,---,0.00,VWS V14.01,2013-07-02 14:32:00,
2013-07-02 08:34:00,70.2,45.4,30.15,North,10,2.7,3.1,41,0.00,,---,0.00,VWS V14.01,2013-07-02 14:34:00,
2013-07-02 08:35:00,70.2,45.4,30.15,North,2,2.7,3.1,41,0.00,,---,0.00,VWS V14.01,2013-07-02 14:35:00,
2013-07-02 08:37:00,70.3,46.2,30.15,North,8,2.2,3.1,42,0.00,,---,0.00,VWS V14.01,2013-07-02 14:37:00,
2013-07-02 08:40:00,70.3,46.2,30.15,North,11,3.1,3.6,42,0.00,,---,0.00,VWS V14.01,2013-07-02 14:40:00,
2013-07-02 08:41:00,70.5,46.3,30.15,North,6,4.0,4.9,42,0.00,,---,0.00,VWS V14.01,2013-07-02 14:41:00,
2013-07-02 08:42:00,70.5,45.1,30.15,North,0,2.2,4.9,40,0.00,,---,0.00,VWS V14.01,2013-07-02 14:42:00,
2013-07-02 08:45:00,70.3,44.9,30.15,North,7,3.1,4.9,40,0.00,,---,0.00,VWS V14.01,2013-07-02 14:45:00,
2013-07-02 08:46:00,70.3,44.9,30.15,North,7,0.0,3.1,40,0.00,,---,0.00,VWS V14.01,2013-07-02 14:46:00,
2013-07-02 08:48:00,70.3,44.9,30.15,ENE,65,0.0,3.1,40,0.00,,---,0.00,VWS V14.01,2013-07-02 14:48:00,
2013-07-02 08:50:00,70.5,45.7,30.15,NE,35,0.0,3.1,41,0.00,,---,0.00,VWS V14.01,2013-07-02 14:50:00,
2013-07-02 08:51:00,70.3,44.9,30.15,NE,35,2.7,3.1,40,0.00,,---,0.00,VWS V14.01,2013-07-02 14:51:00,
2013-07-02 08:53:00,70.5,45.7,30.15,ESE,105,3.6,3.6,41,0.00,,---,0.00,VWS V14.01,2013-07-02 14:53:00,
2013-07-02 08:55:00,70.7,45.9,30.15,ENE,77,0.0,3.6,41,0.00,,---,0.00,VWS V14.01,2013-07-02 14:55:00,
2013-07-02 08:56:00,70.7,45.2,30.15,ENE,63,2.2,3.6,40,0.00,,---,0.00,VWS V14.01,2013-07-02 14:56:00,
2013-07-02 08:57:00,70.9,45.4,30.15,East,82,2.2,3.6,40,0.00,,---,0.00,VWS V14.01,2013-07-02 14:57:00,
2013-07-02 08:58:00,70.9,45.4,30.15,North,6,2.2,3.6,40,0.00,,---,0.00,VWS V14.01,2013-07-02 14:58:00,
2013-07-02 09:00:00,71.1,46.2,30.15,NE,47,2.2,2.7,41,0.00,,---,0.00,VWS V14.01,2013-07-02 15:00:00,
2013-07-02 09:01:00,71.1,45.5,30.15,ENE,67,0.0,2.7,40,0.00,,---,0.00,VWS V14.01,2013-07-02 15:01:00,
2013-07-02 09:02:00,71.1,45.5,30.15,East,81,0.0,2.7,40,0.00,,---,0.00,VWS V14.01,2013-07-02 15:02:00,
2013-07-02 09:03:00,71.2,45.7,30.15,East,87,2.7,2.7,40,0.00,,---,0.00,VWS V14.01,2013-07-02 15:03:00,
2013-07-02 09:05:00,71.6,45.4,30.15,SE,134,2.7,4.0,39,0.00,,---,0.00,VWS V14.01,2013-07-02 15:05:00,
2013-07-02 09:06:00,71.6,45.4,30.15,SE,124,0.0,4.0,39,0.00,,---,0.00,VWS V14.01,2013-07-02 15:06:00,
2013-07-02 09:07:00,71.8,45.5,30.15,North,8,3.1,4.0,39,0.00,,---,0.00,VWS V14.01,2013-07-02 15:07:00,
2013-07-02 09:08:00,71.8,44.8,30.15,North,9,4.0,4.0,38,0.00,,---,0.00,VWS V14.01,2013-07-02 15:08:00,
2013-07-02 09:11:00,71.8,44.8,30.15,NNE,19,2.7,4.0,38,0.00,,---,0.00,VWS V14.01,2013-07-02 15:11:00,
2013-07-02 09:12:00,72.0,44.3,30.15,NNE,31,2.7,4.0,37,0.00,,---,0.00,VWS V14.01,2013-07-02 15:12:00,
2013-07-02 09:13:00,72.1,44.5,30.15,ENE,78,2.7,4.0,37,0.00,,---,0.00,VWS V14.01,2013-07-02 15:13:00,
2013-07-02 09:16:00,72.9,44.4,30.15,North,0,2.7,4.0,36,0.00,,---,0.00,VWS V14.01,2013-07-02 15:16:00,
2013-07-02 09:17:00,72.9,44.4,30.15,North,5,2.7,4.0,36,0.00,,---,0.00,VWS V14.01,2013-07-02 15:17:00,
2013-07-02 09:18:00,73.2,44.7,30.15,NNE,17,2.7,4.9,36,0.00,,---,0.00,VWS V14.01,2013-07-02 15:18:00,
2013-07-02 09:21:00,73.8,44.4,30.15,NNE,15,2.7,4.9,35,0.00,,---,0.00,VWS V14.01,2013-07-02 15:21:00,
2013-07-02 09:22:00,73.9,44.6,30.15,NNE,15,3.1,4.9,35,0.00,,---,0.00,VWS V14.01,2013-07-02 15:22:00,
2013-07-02 09:23:00,74.1,44.0,30.15,NNE,16,2.7,4.9,34,0.00,,---,0.00,VWS V14.01,2013-07-02 15:23:00,
2013-07-02 09:24:00,74.1,44.0,30.15,North,357,2.7,4.9,34,0.00,,---,0.00,VWS V14.01,2013-07-02 15:24:00,
2013-07-02 09:27:00,74.8,45.4,30.15,North,1,2.2,4.9,35,0.00,,---,0.00,VWS V14.01,2013-07-02 15:27:00,
2013-07-02 09:29:00,75.2,44.9,30.15,ESE,102,3.1,5.4,34,0.00,,---,0.00,VWS V14.01,2013-07-02 15:29:00,
2013-07-02 09:32:00,76.1,45.7,30.15,NNE,21,3.6,3.6,34,0.00,,---,0.00,VWS V14.01,2013-07-02 15:32:00,
2013-07-02 09:34:00,76.5,45.2,30.15,NE,39,0.0,3.6,33,0.00,,---,0.00,VWS V14.01,2013-07-02 15:34:00,
2013-07-02 09:37:00,76.8,45.6,30.15,NNE,12,0.0,3.6,33,0.00,,---,0.00,VWS V14.01,2013-07-02 15:37:00,
2013-07-02 09:39:00,77.0,45.7,30.15,East,100,2.2,4.0,33,0.00,,---,0.00,VWS V14.01,2013-07-02 15:39:00,
2013-07-02 09:42:00,78.3,46.0,30.15,ESE,122,3.1,4.0,32,0.00,,---,0.00,VWS V14.01,2013-07-02 15:42:00,
2013-07-02 09:43:00,78.4,46.2,30.15,NNE,28,3.1,4.0,32,0.00,,---,0.00,VWS V14.01,2013-07-02 15:43:00,
2013-07-02 09:44:00,78.6,46.3,30.15,North,5,4.0,4.0,32,0.00,,---,0.00,VWS V14.01,2013-07-02 15:44:00,
2013-07-02 09:47:00,78.1,45.8,30.15,North,8,3.6,5.4,32,0.00,,---,0.00,VWS V14.01,2013-07-02 15:47:00,
2013-07-02 09:48:00,77.9,45.7,30.15,NNE,27,3.6,5.4,32,0.00,,---,0.00,VWS V14.01,2013-07-02 15:48:00,
2013-07-02 09:49:00,77.9,45.7,30.15,NNE,27,2.2,5.4,32,0.00,,---,0.00,VWS V14.01,2013-07-02 15:49:00,
2013-07-02 09:50:00,77.9,45.7,30.15,ESE,107,3.1,5.4,32,0.00,,---,0.00,VWS V14.01,2013-07-02 15:50:00,
2013-07-02 09:52:00,78.6,46.3,30.15,ESE,112,2.7,5.4,32,0.00,,---,0.00,VWS V14.01,2013-07-02 15:52:00,
2013-07-02 09:53:00,78.8,46.5,30.15,SE,125,3.1,5.4,32,0.00,,---,0.00,VWS V14.01,2013-07-02 15:53:00,
2013-07-02 09:54:00,79.0,45.8,30.15,North,1,2.7,5.4,31,0.00,,---,0.00,VWS V14.01,2013-07-02 15:54:00,
2013-07-02 09:55:00,79.3,46.1,30.15,North,3,4.0,5.4,31,0.00,,---,0.00,VWS V14.01,2013-07-02 15:55:00,
2013-07-02 09:57:00,79.0,45.8,30.15,NNE,30,4.0,5.4,31,0.00,,---,0.00,VWS V14.01,2013-07-02 15:57:00,
2013-07-02 09:58:00,79.0,45.8,30.15,NNE,31,3.6,5.4,31,0.00,,---,0.00,VWS V14.01,2013-07-02 15:58:00,
2013-07-02 09:59:00,78.8,45.6,30.15,North,357,3.6,5.4,31,0.00,,---,0.00,VWS V14.01,2013-07-02 15:59:00,
2013-07-02 10:00:00,78.8,45.6,30.15,NNE,21,3.1,5.4,31,0.00,,---,0.00,VWS V14.01,2013-07-02 16:00:00,
2013-07-02 10:03:00,78.3,46.0,30.15,North,8,4.0,4.9,32,0.00,,---,0.00,VWS V14.01,2013-07-02 16:03:00,
2013-07-02 10:04:00,78.1,45.8,30.15,NNE,12,3.1,4.9,32,0.00,,---,0.00,VWS V14.01,2013-07-02 16:04:00,
2013-07-02 10:05:00,77.9,45.7,30.15,NNE,28,2.7,4.9,32,0.00,,---,0.00,VWS V14.01,2013-07-02 16:05:00,
2013-07-02 10:08:00,78.3,46.0,30.15,NE,43,2.7,4.9,32,0.00,,---,0.00,VWS V14.01,2013-07-02 16:08:00,
2013-07-02 10:09:00,78.3,46.0,30.15,North,4,2.7,4.9,32,0.00,,---,0.00,VWS V14.01,2013-07-02 16:09:00,
2013-07-02 10:10:00,78.4,46.2,30.15,NNE,19,4.0,4.9,32,0.00,,---,0.00,VWS V14.01,2013-07-02 16:10:00,
2013-07-02 10:13:00,78.4,45.3,30.15,NNE,21,2.2,4.9,31,0.00,,---,0.00,VWS V14.01,2013-07-02 16:13:00,
2013-07-02 10:14:00,78.6,45.5,30.15,NE,43,0.0,4.9,31,0.00,,---,0.00,VWS V14.01,2013-07-02 16:14:00,
2013-07-02 10:15:00,78.6,45.5,30.15,NE,46,0.0,4.9,31,0.00,,---,0.00,VWS V14.01,2013-07-02 16:15:00,
2013-07-02 10:16:00,78.8,45.6,30.15,North,5,3.6,3.6,31,0.00,,---,0.00,VWS V14.01,2013-07-02 16:16:00,
2013-07-02 10:19:00,79.2,45.1,30.15,NNE,25,3.6,3.6,30,0.00,,---,0.00,VWS V14.01,2013-07-02 16:19:00,
2013-07-02 10:20:00,79.3,45.2,30.15,East,93,3.6,4.0,30,0.00,,---,0.00,VWS V14.01,2013-07-02 16:20:00,
2013-07-02 10:21:00,79.3,45.2,30.15,ESE,110,3.6,4.0,30,0.00,,---,0.00,VWS V14.01,2013-07-02 16:21:00,
2013-07-02 10:24:00,79.9,45.7,30.15,North,357,3.1,5.8,30,0.00,,---,0.00,VWS V14.01,2013-07-02 16:24:00,
2013-07-02 10:26:00,79.7,45.6,30.15,ESE,115,3.1,5.8,30,0.00,,---,0.00,VWS V14.01,2013-07-02 16:26:00,
2013-07-02 10:27:00,79.7,45.6,30.15,North,357,3.1,5.8,30,0.00,,---,0.00,VWS V14.01,2013-07-02 16:27:00,
2013-07-02 10:29:00,80.1,45.9,30.15,North,9,3.6,5.8,30,0.00,,---,0.00,VWS V14.01,2013-07-02 16:29:00,
2013-07-02 10:30:00,79.9,45.7,30.15,North,1,2.7,5.8,30,0.00,,---,0.00,VWS V14.01,2013-07-02 16:30:00,
2013-07-02 10:31:00,79.9,45.7,30.15,East,93,2.7,2.7,30,0.00,,---,0.00,VWS V14.01,2013-07-02 16:31:00,
2013-07-02 10:32:00,79.9,43.0,30.15,East,92,2.7,4.5,27,0.00,,---,0.00,VWS V14.01,2013-07-02 16:32:00,
2013-07-02 10:34:00,80.4,43.4,30.15,ESE,118,3.6,4.5,27,0.00,,---,0.00,VWS V14.01,2013-07-02 16:34:00,
2013-07-02 10:35:00,80.8,43.7,30.15,SE,127,4.0,4.5,27,0.00,,---,0.00,VWS V14.01,2013-07-02 16:35:00,
2013-07-02 10:36:00,81.1,44.0,30.15,North,6,3.1,4.5,27,0.00,,---,0.00,VWS V14.01,2013-07-02 16:36:00,
2013-07-02 10:37:00,81.7,44.5,30.15,NNE,18,3.6,4.5,27,0.00,,---,0.00,VWS V14.01,2013-07-02 16:37:00,
2013-07-02 10:39:00,81.9,42.6,30.15,NNE,19,2.7,4.5,25,0.00,,---,0.00,VWS V14.01,2013-07-02 16:39:00,
2013-07-02 10:40:00,81.7,41.4,30.15,NE,50,2.7,4.5,24,0.00,,---,0.00,VWS V14.01,2013-07-02 16:40:00,
2013-07-02 10:41:00,81.9,41.6,30.15,ENE,72,2.2,4.5,24,0.00,,---,0.00,VWS V14.01,2013-07-02 16:41:00,
2013-07-02 10:42:00,81.9,42.6,30.15,North,0,2.7,4.5,25,0.00,,---,0.00,VWS V14.01,2013-07-02 16:42:00,
2013-07-02 10:45:00,81.9,42.6,30.15,North,1,3.6,4.9,25,0.00,,---,0.00,VWS V14.01,2013-07-02 16:45:00,
2013-07-02 10:46:00,81.5,41.3,30.15,North,9,3.6,3.6,24,0.00,,---,0.00,VWS V14.01,2013-07-02 16:46:00,
2013-07-02 10:47:00,81.3,41.1,30.15,North,2,3.1,3.6,24,0.00,,---,0.00,VWS V14.01,2013-07-02 16:47:00,
2013-07-02 10:50:00,81.3,42.2,30.15,ENE,59,0.0,3.6,25,0.00,,---,0.00,VWS V14.01,2013-07-02 16:50:00,
2013-07-02 10:51:00,81.3,42.2,30.15,North,0,4.0,4.0,25,0.00,,---,0.00,VWS V14.01,2013-07-02 16:51:00,
2013-07-02 10:52:00,81.5,42.3,30.15,North,357,0.0,4.0,25,0.00,,---,0.00,VWS V14.01,2013-07-02 16:52:00,
2013-07-02 10:55:00,82.0,41.7,30.15,North,353,2.2,4.0,24,0.00,,---,0.00,VWS V14.01,2013-07-02 16:55:00,
2013-07-02 10:56:00,82.2,42.9,30.15,NNE,18,3.6,4.0,25,0.00,,---,0.00,VWS V14.01,2013-07-02 16:56:00,
2013-07-02 10:57:00,82.2,41.9,30.15,East,88,3.1,4.0,24,0.00,,---,0.00,VWS V14.01,2013-07-02 16:57:00,
2013-07-02 10:58:00,82.4,42.0,30.15,NNE,24,4.0,4.0,24,0.00,,---,0.00,VWS V14.01,2013-07-02 16:58:00,
2013-07-02 11:00:00,82.0,41.7,30.15,North,8,2.2,2.2,24,0.00,,---,0.00,VWS V14.01,2013-07-02 17:00:00,
2013-07-02 11:01:00,81.9,41.6,30.15,North,357,4.9,4.9,24,0.00,,---,0.00,VWS V14.01,2013-07-02 17:01:00,
2013-07-02 11:02:00,81.9,41.6,30.15,NNE,24,3.6,4.9,24,0.00,,---,0.00,VWS V14.01,2013-07-02 17:02:00,
2013-07-02 11:03:00,81.9,41.6,30.15,ENE,63,2.2,4.9,24,0.00,,---,0.00,VWS V14.01,2013-07-02 17:03:00,
2013-07-02 11:05:00,81.9,41.6,30.15,NNW,340,2.2,4.9,24,0.00,,---,0.00,VWS V14.01,2013-07-02 17:05:00,
2013-07-02 11:06:00,81.9,41.6,30.15,South,190,2.2,4.9,24,0.00,,---,0.00,VWS V14.01,2013-07-02 17:06:00,
2013-07-02 11:07:00,81.9,41.6,30.15,South,190,0.0,4.9,24,0.00,,---,0.00,VWS V14.01,2013-07-02 17:07:00,
2013-07-02 11:08:00,82.4,40.9,30.15,North,3,4.0,4.9,23,0.00,,---,0.00,VWS V14.01,2013-07-02 17:08:00,
2013-07-02 11:10:00,82.6,41.1,30.15,NE,35,3.6,4.9,23,0.00,,---,0.00,VWS V14.01,2013-07-02 17:10:00,
2013-07-02 11:11:00,82.6,41.1,30.15,East,87,2.2,4.9,23,0.00,,---,0.00,VWS V14.01,2013-07-02 17:11:00,
2013-07-02 11:12:00,82.4,40.9,30.15,East,86,0.0,4.9,23,0.00,,---,0.00,VWS V14.01,2013-07-02 17:12:00,
2013-07-02 11:13:00,82.4,40.9,30.15,NNE,21,3.6,4.9,23,0.00,,---,0.00,VWS V14.01,2013-07-02 17:13:00,
2013-07-02 11:15:00,82.2,41.9,30.15,North,6,2.7,2.7,24,0.00,,---,0.00,VWS V14.01,2013-07-02 17:15:00,
2013-07-02 11:17:00,82.2,40.8,30.15,North,357,5.4,5.4,23,0.00,,---,0.00,VWS V14.01,2013-07-02 17:17:00,
2013-07-02 11:18:00,82.2,41.9,30.15,North,5,3.1,5.4,24,0.00,,---,0.00,VWS V14.01,2013-07-02 17:18:00,
2013-07-02 11:20:00,82.0,41.7,30.15,NE,36,2.2,5.4,24,0.00,,---,0.00,VWS V14.01,2013-07-02 17:20:00,
2013-07-02 11:22:00,82.2,41.9,30.15,NNE,20,3.6,5.4,24,0.00,,---,0.00,VWS V14.01,2013-07-02 17:22:00,
2013-07-02 11:23:00,82.2,41.9,30.15,ENE,62,0.0,5.4,24,0.00,,---,0.00,VWS V14.01,2013-07-02 17:23:00,
2013-07-02 11:24:00,82.2,41.9,30.15,NE,36,3.6,5.4,24,0.00,,---,0.00,VWS V14.01,2013-07-02 17:24:00,
2013-07-02 11:25:00,82.4,40.9,30.15,NE,42,3.6,5.4,23,0.00,,---,0.00,VWS V14.01,2013-07-02 17:25:00,
2013-07-02 11:27:00,82.4,39.8,30.15,ENE,77,2.7,5.4,22,0.00,,---,0.00,VWS V14.01,2013-07-02 17:27:00,
2013-07-02 11:28:00,82.4,39.8,30.15,ENE,77,2.7,5.4,22,0.00,,---,0.00,VWS V14.01,2013-07-02 17:28:00,
2013-07-02 11:29:00,82.4,40.9,30.15,NNE,19,3.1,5.4,23,0.00,,---,0.00,VWS V14.01,2013-07-02 17:29:00,
2013-07-02 11:31:00,82.2,40.8,30.15,North,3,5.8,5.8,23,0.00,,---,0.00,VWS V14.01,2013-07-02 17:31:00,
2013-07-02 11:32:00,82.0,39.5,30.15,North,9,4.0,5.8,22,0.00,,---,0.00,VWS V14.01,2013-07-02 17:32:00,
2013-07-02 11:33:00,82.0,39.5,30.15,North,2,3.6,5.8,22,0.00,,---,0.00,VWS V14.01,2013-07-02 17:33:00,
2013-07-02 11:34:00,81.9,39.3,30.15,North,2,0.0,5.8,22,0.00,,---,0.00,VWS V14.01,2013-07-02 17:34:00,
2013-07-02 11:36:00,81.9,40.5,30.15,NW,320,0.0,5.8,23,0.00,,---,0.00,VWS V14.01,2013-07-02 17:36:00,
2013-07-02 11:38:00,82.6,41.1,30.15,North,357,2.7,5.8,23,0.00,,---,0.00,VWS V14.01,2013-07-02 17:38:00,
2013-07-02 11:39:00,82.6,41.1,30.15,NNE,14,3.1,5.8,23,0.00,,---,0.00,VWS V14.01,2013-07-02 17:39:00,
2013-07-02 11:41:00,83.1,41.5,30.15,North,6,2.7,5.8,23,0.00,,---,0.00,VWS V14.01,2013-07-02 17:41:00,
2013-07-02 11:44:00,83.5,41.8,30.15,North,357,5.4,5.8,23,0.00,,---,0.00,VWS V14.01,2013-07-02 17:44:00,
2013-07-02 11:46:00,83.3,41.7,30.15,NNW,346,3.1,4.9,23,0.00,,---,0.00,VWS V14.01,2013-07-02 17:46:00,
2013-07-02 11:49:00,82.9,41.4,30.15,ENE,72,2.2,4.9,23,0.00,,---,0.00,VWS V14.01,2013-07-02 17:49:00,
2013-07-02 11:50:00,83.3,41.7,30.15,East,96,2.7,4.9,23,0.00,,---,0.00,VWS V14.01,2013-07-02 17:50:00,
2013-07-02 11:51:00,83.3,41.7,30.15,East,96,2.7,4.9,23,0.00,,---,0.00,VWS V14.01,2013-07-02 17:51:00,
2013-07-02 11:54:00,83.3,41.7,30.15,NNW,345,4.0,4.9,23,0.00,,---,0.00,VWS V14.01,2013-07-02 17:54:00,
2013-07-02 11:55:00,83.3,41.7,30.15,NNW,335,5.4,5.4,23,0.00,,---,0.00,VWS V14.01,2013-07-02 17:55:00,
2013-07-02 11:57:00,83.1,41.5,30.15,NNW,346,2.2,5.4,23,0.00,,---,0.00,VWS V14.01,2013-07-02 17:57:00,
2013-07-02 11:59:00,82.9,40.2,30.15,North,10,3.1,5.4,22,0.00,,---,0.00,VWS V14.01,2013-07-02 17:59:00,
2013-07-02 12:00:00,82.9,40.2,30.15,North,10,2.2,5.4,22,0.00,,---,0.00,VWS V14.01,2013-07-02 18:00:00,
2013-07-02 12:01:00,82.9,41.4,30.15,NNE,14,0.0,2.2,23,0.00,,---,0.00,VWS V14.01,2013-07-02 18:01:00,
2013-07-02 12:02:00,82.9,41.4,30.15,ENE,71,0.0,3.6,23,0.00,,---,0.00,VWS V14.01,2013-07-02 18:02:00,
2013-07-02 17:17:00,92.7,19.7,30.12,East,99,3.6,5.4,7,0.00,,---,0.00,VWS V14.01,2013-07-02 23:17:00,
2013-07-02 17:22:00,91.6,18.9,30.12,ESE,104,3.6,6.3,7,0.00,,---,0.00,VWS V14.01,2013-07-02 23:22:00,
2013-07-02 17:27:00,91.0,18.5,30.12,East,100,2.7,6.3,7,0.00,,---,0.00,VWS V14.01,2013-07-02 23:27:00,
2013-07-02 17:29:00,90.9,18.4,30.12,East,98,0.0,6.3,7,0.00,,---,0.00,VWS V14.01,2013-07-02 23:29:00,
2013-07-02 17:32:00,90.5,18.1,30.12,ESE,108,3.6,4.0,7,0.00,,---,0.00,VWS V14.01,2013-07-02 23:32:00,
2013-07-02 17:33:00,90.5,18.1,30.12,East,101,4.9,4.9,7,0.00,,---,0.00,VWS V14.01,2013-07-02 23:33:00,
2013-07-02 17:34:00,90.3,18.0,30.12,East,100,3.1,4.9,7,0.00,,---,0.00,VWS V14.01,2013-07-02 23:34:00,
2013-07-02 17:37:00,90.0,17.7,30.12,East,101,3.6,4.9,7,0.00,,---,0.00,VWS V14.01,2013-07-02 23:37:00,
2013-07-02 17:38:00,89.8,17.6,30.12,SE,142,4.9,4.9,7,0.00,,---,0.00,VWS V14.01,2013-07-02 23:38:00,
2013-07-02 17:39:00,89.8,17.6,30.12,SE,128,4.9,4.9,7,0.00,,---,0.00,VWS V14.01,2013-07-02 23:39:00,
2013-07-02 17:42:00,89.6,17.5,30.12,ESE,108,4.0,5.4,7,0.00,,---,0.00,VWS V14.01,2013-07-02 23:42:00,
2013-07-02 17:43:00,89.4,20.4,30.12,East,101,2.2,5.4,8,0.00,,---,0.00,VWS V14.01,2013-07-02 23:43:00,
2013-07-02 17:44:00,89.4,20.4,30.12,East,97,2.7,5.4,8,0.00,,---,0.00,VWS V14.01,2013-07-02 23:44:00,
2013-07-02 17:47:00,89.1,25.5,30.09,ESE,105,2.7,4.0,10,0.00,,---,0.00,VWS V14.01,2013-07-02 23:47:00,
2013-07-02 17:48:00,89.1,25.5,30.09,ESE,106,3.1,4.0,10,0.00,,---,0.00,VWS V14.01,2013-07-02 23:48:00,
2013-07-02 17:49:00,88.9,20.0,30.09,East,101,0.0,4.0,8,0.00,,---,0.00,VWS V14.01,2013-07-02 23:49:00,
2013-07-02 17:52:00,88.3,24.9,30.09,NE,40,2.2,4.0,10,0.00,,---,0.00,VWS V14.01,2013-07-02 23:52:00,
2013-07-02 17:53:00,88.2,24.8,30.09,NE,40,2.7,4.0,10,0.00,,---,0.00,VWS V14.01,2013-07-02 23:53:00,
2013-07-02 17:54:00,88.2,24.8,30.09,NE,40,2.7,4.0,10,0.00,,---,0.00,VWS V14.01,2013-07-02 23:54:00,
2013-07-02 17:55:00,88.0,24.7,30.09,North,11,5.4,5.4,10,0.00,,---,0.00,VWS V14.01,2013-07-02 23:55:00,
2013-07-02 17:58:00,87.4,26.5,30.09,NNE,24,12.8,12.8,11,0.00,,---,0.00,VWS V14.01,2013-07-02 23:58:00,
2013-07-02 17:59:00,87.1,18.7,30.09,NE,36,8.1,12.8,8,0.00,,---,0.00,VWS V14.01,2013-07-02 23:59:00,
2013-07-02 18:00:00,86.0,29.5,30.09,North,357,19.7,19.7,13,0.00,,---,0.00,VWS V14.01,2013-07-03 00:00:00,
2013-07-02 18:01:00,84.7,28.5,30.09,North,1,13.6,19.7,13,0.00,,---,0.00,VWS V14.01,2013-07-03 00:01:00,
2013-07-02 18:03:00,78.3,38.5,30.15,North,3,3.6,19.7,24,0.00,,---,0.00,VWS V14.01,2013-07-03 00:03:00,
2013-07-02 18:04:00,76.8,38.4,30.15,ENE,57,4.9,19.7,25,0.00,,---,0.00,VWS V14.01,2013-07-03 00:04:00,
2013-07-02 18:05:00,74.5,43.5,30.15,ESE,118,3.6,19.7,33,0.00,,---,0.00,VWS V14.01,2013-07-03 00:05:00,
2013-07-02 18:06:00,72.7,44.2,30.15,ESE,120,3.1,19.7,36,0.00,,---,0.00,VWS V14.01,2013-07-03 00:06:00,
2013-07-02 18:09:00,69.3,45.8,30.15,SW,235,4.0,19.7,43,0.08,,---,0.08,VWS V14.01,2013-07-03 00:09:00,
2013-07-02 18:10:00,67.8,47.4,30.15,South,188,5.4,19.7,48,0.08,,---,0.08,VWS V14.01,2013-07-03 00:10:00,
2013-07-02 18:11:00,67.3,47.5,30.15,SSE,149,0.0,19.7,49,0.08,,---,0.08,VWS V14.01,2013-07-03 00:11:00,
2013-07-02 18:14:00,66.2,49.6,30.15,SSE,152,0.0,19.7,55,0.08,,---,0.08,VWS V14.01,2013-07-03 00:14:00,
2013-07-02 18:15:00,66.0,50.8,30.15,North,7,4.0,19.7,58,0.08,,---,0.08,VWS V14.01,2013-07-03 00:15:00,
2013-07-02 18:16:00,65.7,50.5,30.15,North,3,3.1,7.6,58,0.08,,---,0.08,VWS V14.01,2013-07-03 00:16:00,
2013-07-02 18:19:00,65.1,50.5,30.12,SE,139,2.7,7.6,59,0.08,,---,0.08,VWS V14.01,2013-07-03 00:19:00,
2013-07-02 18:20:00,65.1,50.0,30.12,South,181,2.7,7.6,58,0.08,,---,0.08,VWS V14.01,2013-07-03 00:20:00,
2013-07-02 18:21:00,65.7,54.4,30.12,SSW,201,5.8,7.6,67,0.08,,---,0.08,VWS V14.01,2013-07-03 00:21:00,
2013-07-02 18:22:00,65.7,54.4,30.12,SSW,208,5.8,7.6,67,0.08,,---,0.08,VWS V14.01,2013-07-03 00:22:00,
2013-07-02 18:23:00,65.8,55.4,30.12,SW,220,6.3,8.3,69,0.08,,---,0.08,VWS V14.01,2013-07-03 00:23:00,
2013-07-02 18:24:00,65.8,55.0,30.12,SSW,205,8.1,8.3,68,0.08,,---,0.08,VWS V14.01,2013-07-03 00:24:00,
2013-07-02 18:25:00,65.7,52.7,30.12,SSW,203,7.2,8.7,63,0.08,,---,0.08,VWS V14.01,2013-07-03 00:25:00,
2013-07-02 18:26:00,65.8,51.6,30.12,SSW,203,8.3,8.7,60,0.08,,---,0.08,VWS V14.01,2013-07-03 00:26:00,
2013-07-02 18:27:00,66.2,51.5,30.12,SSW,209,6.7,8.7,59,0.08,,---,0.08,VWS V14.01,2013-07-03 00:27:00,
2013-07-02 18:28:00,66.4,51.6,30.12,South,186,9.2,9.2,59,0.08,,---,0.08,VWS V14.01,2013-07-03 00:28:00,
2013-07-02 18:30:00,66.9,51.2,30.12,SW,214,6.3,9.2,57,0.08,,---,0.08,VWS V14.01,2013-07-03 00:30:00,
2013-07-02 18:31:00,67.3,48.0,30.12,SSW,209,8.1,11.0,50,0.08,,---,0.08,VWS V14.01,2013-07-03 00:31:00,
2013-07-02 18:32:00,67.8,46.3,30.09,SSW,201,5.8,11.0,46,0.08,,---,0.08,VWS V14.01,2013-07-03 00:32:00,
2013-07-02 18:33:00,67.8,46.3,30.09,SSW,195,6.3,11.0,46,0.08,,---,0.08,VWS V14.01,2013-07-03 00:33:00,
2013-07-02 18:35:00,68.4,46.2,30.09,South,181,11.0,11.0,45,0.08,,---,0.08,VWS V14.01,2013-07-03 00:35:00,
2013-07-02 18:37:00,69.1,46.9,30.09,SSW,212,8.1,11.0,45,0.08,,---,0.08,VWS V14.01,2013-07-03 00:37:00,
2013-07-02 18:38:00,69.3,47.6,30.09,SSW,203,6.3,11.0,46,0.08,,---,0.08,VWS V14.01,2013-07-03 00:38:00,
2013-07-02 18:40:00,69.4,47.8,30.09,SW,215,6.3,11.0,46,0.08,,---,0.08,VWS V14.01,2013-07-03 00:40:00,
2013-07-02 18:42:00,69.8,47.5,30.09,SSW,201,6.3,11.0,45,0.08,,---,0.08,VWS V14.01,2013-07-03 00:42:00,
2013-07-02 18:43:00,69.8,47.5,30.09,SSW,202,6.3,11.0,45,0.08,,---,0.08,VWS V14.01,2013-07-03 00:43:00,
2013-07-02 18:45:00,70.9,46.7,30.09,SSW,208,4.9,5.8,42,0.08,,---,0.08,VWS V14.01,2013-07-03 00:45:00,
2013-07-02 18:47:00,71.2,46.4,30.09,SSE,166,4.0,8.3,41,0.08,,---,0.08,VWS V14.01,2013-07-03 00:47:00,
2013-07-02 18:48:00,71.6,45.4,30.09,SSE,166,4.0,8.3,39,0.08,,---,0.08,VWS V14.01,2013-07-03 00:48:00,
2013-07-02 18:49:00,71.6,45.4,30.09,SSW,200,6.3,8.3,39,0.08,,---,0.08,VWS V14.01,2013-07-03 00:49:00,
2013-07-02 18:50:00,72.3,46.7,30.09,SSW,211,4.9,8.3,40,0.08,,---,0.08,VWS V14.01,2013-07-03 00:50:00,
2013-07-02 18:52:00,72.7,47.0,30.09,SSW,206,5.4,8.3,40,0.08,,---,0.08,VWS V14.01,2013-07-03 00:52:00,
2013-07-02 18:53:00,72.9,47.8,30.09,SSW,202,4.9,8.3,41,0.08,,---,0.08,VWS V14.01,2013-07-03 00:53:00,
2013-07-02 18:54:00,73.2,48.1,30.09,SSW,202,4.9,8.3,41,0.08,,---,0.08,VWS V14.01,2013-07-03 00:54:00,
2013-07-02 18:56:00,73.2,48.1,30.09,SSW,197,4.0,8.3,41,0.08,,---,0.08,VWS V14.01,2013-07-03 00:56:00,
2013-07-02 18:57:00,73.6,48.5,30.09,SSW,199,4.9,8.3,41,0.08,,---,0.08,VWS V14.01,2013-07-03 00:57:00,
2013-07-02 18:58:00,73.6,48.5,30.09,SSW,202,5.4,8.3,41,0.08,,---,0.08,VWS V14.01,2013-07-03 00:58:00,
2013-07-02 19:00:00,73.8,44.4,30.09,SSW,202,5.4,8.3,35,0.08,,---,0.08,VWS V14.01,2013-07-03 01:00:00,
2013-07-02 19:01:00,73.9,44.6,30.09,SSW,201,4.9,5.8,35,0.08,,---,0.08,VWS V14.01,2013-07-03 01:01:00,
2013-07-02 19:03:00,74.7,43.7,30.09,SSW,199,5.4,5.8,33,0.08,,---,0.08,VWS V14.01,2013-07-03 01:03:00,
2013-07-02 19:05:00,75.0,44.0,30.09,SSW,197,4.0,5.8,33,0.08,,---,0.08,VWS V14.01,2013-07-03 01:05:00,
2013-07-02 19:06:00,75.4,44.3,30.09,SSW,194,3.6,5.8,33,0.08,,---,0.08,VWS V14.01,2013-07-03 01:06:00,
2013-07-02 19:08:00,75.6,44.5,30.09,SSW,194,5.8,5.8,33,0.08,,---,0.08,VWS V14.01,2013-07-03 01:08:00,
2013-07-02 19:09:00,75.7,44.6,30.09,SSW,194,5.8,5.8,33,0.08,,---,0.08,VWS V14.01,2013-07-03 01:09:00,
2013-07-02 19:10:00,75.7,44.6,30.09,SSW,194,5.8,5.8,33,0.08,,---,0.08,VWS V14.01,2013-07-03 01:10:00,
2013-07-02 19:11:00,75.9,44.0,30.09,SSW,194,5.8,5.8,32,0.08,,---,0.08,VWS V14.01,2013-07-03 01:11:00,
2013-07-02 19:13:00,75.9,44.0,30.09,SSW,207,6.3,7.2,32,0.08,,---,0.08,VWS V14.01,2013-07-03 01:13:00,
2013-07-02 19:14:00,75.9,44.0,30.09,SSW,210,5.4,7.2,32,0.08,,---,0.08,VWS V14.01,2013-07-03 01:14:00,
2013-07-02 19:15:00,76.1,44.9,30.09,SSW,210,5.4,5.4,33,0.00,,---,0.08,VWS V14.01,2013-07-03 01:15:00,
2013-07-02 19:16:00,76.1,44.9,30.09,SSW,206,7.2,7.2,33,0.00,,---,0.08,VWS V14.01,2013-07-03 01:16:00,
2013-07-02 19:17:00,76.1,44.9,30.09,SSW,200,6.3,7.2,33,0.00,,---,0.08,VWS V14.01,2013-07-03 01:17:00,
2013-07-02 19:18:00,76.1,44.1,30.09,SSW,202,5.4,7.2,32,0.00,,---,0.08,VWS V14.01,2013-07-03 01:18:00,
2013-07-02 19:20:00,76.3,44.3,30.09,SSW,199,5.4,7.2,32,0.00,,---,0.08,VWS V14.01,2013-07-03 01:20:00,
2013-07-02 19:21:00,76.5,44.4,30.09,SSW,212,5.8,7.6,32,0.00,,---,0.08,VWS V14.01,2013-07-03 01:21:00,
2013-07-02 19:22:00,76.5,44.4,30.09,SSW,206,6.3,7.6,32,0.00,,---,0.08,VWS V14.01,2013-07-03 01:22:00,
2013-07-02 19:23:00,76.5,44.4,30.09,SSW,207,6.3,7.6,32,0.00,,---,0.08,VWS V14.01,2013-07-03 01:23:00,
2013-07-02 19:25:00,76.6,44.6,30.09,SSW,201,5.8,7.6,32,0.00,,---,0.08,VWS V14.01,2013-07-03 01:25:00,
2013-07-02 19:26:00,76.6,44.6,30.09,SSW,213,5.8,7.6,32,0.00,,---,0.08,VWS V14.01,2013-07-03 01:26:00,
2013-07-02 19:27:00,76.8,43.9,30.09,SSW,197,5.8,8.1,31,0.00,,---,0.08,VWS V14.01,2013-07-03 01:27:00,
2013-07-02 19:30:00,77.2,44.2,30.09,SSW,205,5.8,5.8,31,0.00,,---,0.08,VWS V14.01,2013-07-03 01:30:00,
2013-07-02 19:31:00,77.4,44.4,30.09,SSW,205,5.8,5.8,31,0.00,,---,0.08,VWS V14.01,2013-07-03 01:31:00,
2013-07-02 19:32:00,77.4,44.4,30.09,SSW,205,5.8,5.8,31,0.00,,---,0.08,VWS V14.01,2013-07-03 01:32:00,
2013-07-02 19:33:00,77.5,44.5,30.09,SSW,201,4.9,5.8,31,0.00,,---,0.08,VWS V14.01,2013-07-03 01:33:00,
2013-07-02 19:36:00,77.9,44.9,30.09,SSW,197,4.9,5.8,31,0.00,,---,0.08,VWS V14.01,2013-07-03 01:36:00,
2013-07-02 19:37:00,77.9,44.9,30.09,SSW,192,4.9,5.8,31,0.00,,---,0.08,VWS V14.01,2013-07-03 01:37:00,
2013-07-02 19:38:00,77.9,44.9,30.09,SSW,197,5.4,5.8,31,0.00,,---,0.08,VWS V14.01,2013-07-03 01:38:00,
2013-07-02 19:41:00,78.1,45.0,30.09,SSW,202,5.8,5.8,31,0.00,,---,0.08,VWS V14.01,2013-07-03 01:41:00,
2013-07-02 19:42:00,78.1,45.0,30.09,South,190,5.4,5.8,31,0.00,,---,0.08,VWS V14.01,2013-07-03 01:42:00,
2013-07-02 19:43:00,78.3,45.2,30.09,SSW,195,5.4,5.8,31,0.00,,---,0.08,VWS V14.01,2013-07-03 01:43:00,
2013-07-02 19:46:00,78.3,45.2,30.09,South,191,5.4,5.4,31,0.00,,---,0.08,VWS V14.01,2013-07-03 01:46:00,
2013-07-02 19:47:00,78.3,45.2,30.09,South,191,5.4,5.4,31,0.00,,---,0.08,VWS V14.01,2013-07-03 01:47:00,
2013-07-02 19:49:00,78.4,45.3,30.09,SSW,204,5.8,6.3,31,0.00,,---,0.08,VWS V14.01,2013-07-03 01:49:00,
2013-07-02 19:50:00,78.4,45.3,30.09,SSW,193,5.4,6.3,31,0.00,,---,0.08,VWS V14.01,2013-07-03 01:50:00,
2013-07-02 19:52:00,78.4,45.3,30.09,SSW,200,5.4,6.3,31,0.00,,---,0.08,VWS V14.01,2013-07-03 01:52:00,
2013-07-02 19:55:00,78.4,45.3,30.09,SSW,202,5.4,6.3,31,0.00,,---,0.08,VWS V14.01,2013-07-03 01:55:00,
2013-07-02 19:56:00,78.6,46.3,30.09,SSW,200,4.0,6.3,32,0.00,,---,0.08,VWS V14.01,2013-07-03 01:56:00,
2013-07-02 19:57:00,78.4,46.2,30.09,SSW,205,4.9,6.3,32,0.00,,---,0.08,VWS V14.01,2013-07-03 01:57:00,
2013-07-02 20:00:00,78.4,46.2,30.09,SSW,201,5.4,5.4,32,0.00,,---,0.08,VWS V14.01,2013-07-03 02:00:00,
2013-07-02 20:01:00,78.4,46.2,30.09,SSW,201,5.4,5.4,32,0.00,,---,0.08,VWS V14.01,2013-07-03 02:01:00,
2013-07-02 20:06:00,78.6,46.3,30.09,SSW,200,5.4,6.3,32,0.00,,---,0.08,VWS V14.01,2013-07-03 02:06:00,
2013-07-02 20:11:00,78.6,46.3,30.09,SSW,200,4.0,6.3,32,0.00,,---,0.08,VWS V14.01,2013-07-03 02:11:00,
2013-07-02 20:17:00,78.4,47.0,30.09,SSW,197,5.4,5.8,33,0.00,,---,0.08,VWS V14.01,2013-07-03 02:17:00,
2013-07-02 20:22:00,78.4,46.2,30.09,SSW,194,5.4,6.7,32,0.00,,---,0.08,VWS V14.01,2013-07-03 02:22:00,
2013-07-02 20:23:00,78.4,47.0,30.09,SSW,201,4.9,6.7,33,0.00,,---,0.08,VWS V14.01,2013-07-03 02:23:00,
2013-07-02 20:28:00,78.4,46.2,30.09,SSW,198,4.0,6.7,32,0.00,,---,0.08,VWS V14.01,2013-07-03 02:28:00,
2013-07-02 20:29:00,78.3,46.0,30.09,SSW,199,3.6,6.7,32,0.00,,---,0.08,VWS V14.01,2013-07-03 02:29:00,
2013-07-02 20:32:00,78.1,46.7,30.09,SSW,193,2.2,4.0,33,0.00,,---,0.08,VWS V14.01,2013-07-03 02:32:00,
2013-07-02 20:34:00,78.1,46.7,30.09,SSW,192,2.2,4.0,33,0.00,,---,0.08,VWS V14.01,2013-07-03 02:34:00,
2013-07-02 20:38:00,77.5,46.2,30.09,South,188,0.0,4.0,33,0.00,,---,0.08,VWS V14.01,2013-07-03 02:38:00,
2013-07-02 20:39:00,77.4,46.8,30.09,ESE,113,4.0,4.0,34,0.00,,---,0.08,VWS V14.01,2013-07-03 02:39:00,
2013-07-02 20:43:00,76.3,50.2,30.09,SE,146,0.0,4.0,40,0.00,,---,0.08,VWS V14.01,2013-07-03 02:43:00,
2013-07-02 20:44:00,75.9,50.5,30.09,SE,146,0.0,4.0,41,0.00,,---,0.08,VWS V14.01,2013-07-03 02:44:00,
2013-07-02 20:45:00,75.9,50.5,30.09,SE,146,0.0,4.0,41,0.00,,---,0.08,VWS V14.01,2013-07-03 02:45:00,
2013-07-02 20:46:00,75.4,52.0,30.09,SE,146,0.0,0.0,44,0.00,,---,0.08,VWS V14.01,2013-07-03 02:46:00,
2013-07-02 20:48:00,74.8,53.3,30.09,SE,146,0.0,0.0,47,0.00,,---,0.08,VWS V14.01,2013-07-03 02:48:00,
2013-07-02 20:50:00,74.7,52.5,30.09,SE,146,0.0,0.0,46,0.00,,---,0.08,VWS V14.01,2013-07-03 02:50:00,
2013-07-02 20:51:00,74.3,52.8,30.09,SE,146,0.0,0.0,47,0.00,,---,0.08,VWS V14.01,2013-07-03 02:51:00,
2013-07-02 20:52:00,73.9,51.3,30.09,SE,146,0.0,0.0,45,0.00,,---,0.08,VWS V14.01,2013-07-03 02:52:00,
2013-07-02 20:54:00,73.8,51.1,30.09,South,181,2.7,2.7,45,0.00,,---,0.08,VWS V14.01,2013-07-03 02:54:00,
2013-07-02 20:55:00,73.6,51.0,30.09,SW,224,3.1,3.1,45,0.00,,---,0.08,VWS V14.01,2013-07-03 02:55:00,
2013-07-02 20:57:00,73.6,51.0,30.09,SW,224,2.2,3.1,45,0.00,,---,0.08,VWS V14.01,2013-07-03 02:57:00,
2013-07-02 20:59:00,73.2,50.0,30.09,SW,224,0.0,3.1,44,0.00,,---,0.08,VWS V14.01,2013-07-03 02:59:00,
2013-07-02 21:01:00,73.2,50.0,30.09,SW,224,0.0,0.0,44,0.00,,---,0.08,VWS V14.01,2013-07-03 03:01:00,
2013-07-02 21:02:00,73.2,49.4,30.09,SW,223,2.2,2.2,43,0.00,,---,0.08,VWS V14.01,2013-07-03 03:02:00,
2013-07-02 21:03:00,73.2,49.4,30.09,SW,224,0.0,2.2,43,0.00,,---,0.08,VWS V14.01,2013-07-03 03:03:00,
2013-07-02 21:06:00,73.2,48.8,30.09,SW,224,0.0,2.2,42,0.00,,---,0.08,VWS V14.01,2013-07-03 03:06:00,
2013-07-02 21:08:00,73.4,48.3,30.09,SW,224,0.0,2.2,41,0.00,,---,0.08,VWS V14.01,2013-07-03 03:08:00,
2013-07-02 21:11:00,73.4,46.3,30.09,SW,224,0.0,2.2,38,0.00,,---,0.08,VWS V14.01,2013-07-03 03:11:00,
2013-07-02 21:14:00,73.6,46.4,30.09,SW,224,0.0,2.2,38,0.00,,---,0.08,VWS V14.01,2013-07-03 03:14:00,
2013-07-02 21:17:00,73.4,48.3,30.09,SW,224,0.0,0.0,41,0.00,,---,0.08,VWS V14.01,2013-07-03 03:17:00,
2013-07-02 21:19:00,73.2,48.8,30.09,SSW,200,2.2,2.2,42,0.00,,---,0.08,VWS V14.01,2013-07-03 03:19:00,
2013-07-02 21:20:00,73.0,47.3,30.09,South,184,3.6,3.6,40,0.00,,---,0.08,VWS V14.01,2013-07-03 03:20:00,
2013-07-02 21:23:00,72.7,47.7,30.09,South,187,3.6,3.6,41,0.00,,---,0.08,VWS V14.01,2013-07-03 03:23:00,
2013-07-02 21:24:00,72.7,47.7,30.09,South,191,3.6,3.6,41,0.00,,---,0.08,VWS V14.01,2013-07-03 03:24:00,
2013-07-02 21:26:00,72.7,48.3,30.09,SSW,192,6.3,6.3,42,0.00,,---,0.08,VWS V14.01,2013-07-03 03:26:00,
2013-07-02 21:28:00,72.5,47.5,30.09,SSW,198,6.3,6.3,41,0.00,,---,0.08,VWS V14.01,2013-07-03 03:28:00,
2013-07-02 21:29:00,72.7,47.0,30.09,SSW,202,5.8,7.6,40,0.00,,---,0.08,VWS V14.01,2013-07-03 03:29:00,
2013-07-02 21:32:00,72.9,47.2,30.09,SSW,203,5.4,8.1,40,0.00,,---,0.08,VWS V14.01,2013-07-03 03:32:00,
2013-07-02 21:34:00,72.9,46.5,30.09,SSW,196,8.3,8.3,39,0.00,,---,0.08,VWS V14.01,2013-07-03 03:34:00,
2013-07-02 21:35:00,72.9,46.5,30.09,SSW,196,8.3,8.3,39,0.00,,---,0.08,VWS V14.01,2013-07-03 03:35:00,
2013-07-02 21:37:00,72.9,46.5,30.09,SSW,198,5.8,8.3,39,0.00,,---,0.08,VWS V14.01,2013-07-03 03:37:00,
2013-07-02 21:38:00,72.7,45.6,30.09,South,191,5.8,8.3,38,0.00,,---,0.08,VWS V14.01,2013-07-03 03:38:00,
2013-07-02 21:39:00,72.7,46.3,30.09,SSW,192,5.8,8.3,39,0.00,,---,0.08,VWS V14.01,2013-07-03 03:39:00,
2013-07-02 21:41:00,72.7,47.0,30.09,SSW,200,7.6,8.3,40,0.00,,---,0.08,VWS V14.01,2013-07-03 03:41:00,
2013-07-02 21:42:00,72.5,46.2,30.09,SSW,198,6.3,8.3,39,0.00,,---,0.08,VWS V14.01,2013-07-03 03:42:00,
2013-07-02 21:43:00,72.5,46.2,30.09,SSW,193,5.8,8.3,39,0.00,,---,0.08,VWS V14.01,2013-07-03 03:43:00,
2013-07-02 21:44:00,72.5,46.2,30.09,SSW,200,5.4,8.3,39,0.00,,---,0.08,VWS V14.01,2013-07-03 03:44:00,
2013-07-02 21:48:00,72.3,45.3,30.06,SSW,199,5.4,7.6,38,0.00,,---,0.08,VWS V14.01,2013-07-03 03:48:00,
2013-07-02 21:49:00,72.3,44.6,30.06,SSW,199,5.4,7.6,37,0.00,,---,0.08,VWS V14.01,2013-07-03 03:49:00,
2013-07-02 21:53:00,72.3,44.6,30.06,South,190,5.8,8.1,37,0.00,,---,0.08,VWS V14.01,2013-07-03 03:53:00,
2013-07-02 21:54:00,72.3,44.6,30.06,SSW,197,4.0,8.1,37,0.00,,---,0.08,VWS V14.01,2013-07-03 03:54:00,
2013-07-02 21:55:00,72.3,44.6,30.06,SSW,200,5.4,8.1,37,0.00,,---,0.08,VWS V14.01,2013-07-03 03:55:00,
2013-07-02 21:58:00,72.3,43.9,30.06,SSW,198,5.8,8.1,36,0.00,,---,0.08,VWS V14.01,2013-07-03 03:58:00,
2013-07-02 21:59:00,72.1,43.7,30.06,SSW,194,5.4,8.1,36,0.00,,---,0.08,VWS V14.01,2013-07-03 03:59:00,
2013-07-02 22:01:00,72.1,43.7,30.06,SSW,192,5.8,5.8,36,0.00,,---,0.08,VWS V14.01,2013-07-03 04:01:00,
2013-07-02 22:02:00,72.1,43.0,30.06,SSW,197,4.0,5.8,35,0.00,,---,0.08,VWS V14.01,2013-07-03 04:02:00,
2013-07-02 22:03:00,72.1,43.0,30.06,SSW,199,4.0,5.8,35,0.00,,---,0.08,VWS V14.01,2013-07-03 04:03:00,
2013-07-02 22:04:00,72.1,43.7,30.06,SSW,192,4.0,5.8,36,0.00,,---,0.08,VWS V14.01,2013-07-03 04:04:00,
2013-07-02 22:06:00,72.0,42.8,30.06,SSW,193,2.7,5.8,35,0.00,,---,0.08,VWS V14.01,2013-07-03 04:06:00,
2013-07-02 22:07:00,71.8,42.7,30.06,SSW,203,4.9,5.8,35,0.00,,---,0.08,VWS V14.01,2013-07-03 04:07:00,
2013-07-02 22:08:00,71.8,42.7,30.06,SSW,196,5.4,6.3,35,0.00,,---,0.08,VWS V14.01,2013-07-03 04:08:00,
2013-07-02 22:09:00,71.8,42.7,30.06,SSW,198,5.4,6.3,35,0.00,,---,0.08,VWS V14.01,2013-07-03 04:09:00,
2013-07-02 22:11:00,71.6,42.5,30.06,South,190,6.7,6.7,35,0.00,,---,0.08,VWS V14.01,2013-07-03 04:11:00,
2013-07-02 22:12:00,71.6,42.5,30.06,SSW,196,5.8,8.1,35,0.00,,---,0.08,VWS V14.01,2013-07-03 04:12:00,
2013-07-02 22:13:00,71.6,42.5,30.06,SSW,196,7.6,8.1,35,0.00,,---,0.08,VWS V14.01,2013-07-03 04:13:00,
2013-07-02 22:14:00,71.6,41.8,30.06,SSW,196,5.4,8.1,34,0.00,,---,0.08,VWS V14.01,2013-07-03 04:14:00,
2013-07-02 22:16:00,71.6,41.8,30.06,SSW,202,6.3,7.6,34,0.00,,---,0.08,VWS V14.01,2013-07-03 04:16:00,
2013-07-02 22:17:00,71.6,41.8,30.06,SSW,202,6.3,7.6,34,0.00,,---,0.08,VWS V14.01,2013-07-03 04:17:00,
2013-07-02 22:19:00,71.6,41.8,30.06,SSW,193,5.8,7.6,34,0.00,,---,0.08,VWS V14.01,2013-07-03 04:19:00,
2013-07-02 22:20:00,71.6,41.8,30.06,South,190,5.4,8.7,34,0.00,,---,0.08,VWS V14.01,2013-07-03 04:20:00,
2013-07-02 22:21:00,71.6,41.8,30.06,SSW,212,8.3,8.7,34,0.00,,---,0.08,VWS V14.01,2013-07-03 04:21:00,
2013-07-02 22:22:00,71.6,41.8,30.06,SSW,198,5.8,8.7,34,0.00,,---,0.08,VWS V14.01,2013-07-03 04:22:00,
2013-07-02 22:24:00,71.6,41.0,30.06,SSW,197,4.0,8.7,33,0.00,,---,0.08,VWS V14.01,2013-07-03 04:24:00,
2013-07-02 22:25:00,71.6,41.0,30.06,South,181,2.7,8.7,33,0.00,,---,0.08,VWS V14.01,2013-07-03 04:25:00,
2013-07-02 22:26:00,71.6,41.8,30.06,SSW,198,4.0,8.7,34,0.00,,---,0.08,VWS V14.01,2013-07-03 04:26:00,
2013-07-02 22:27:00,71.6,41.0,30.06,South,178,5.8,8.7,33,0.00,,---,0.08,VWS V14.01,2013-07-03 04:27:00,
2013-07-02 22:28:00,71.6,41.0,30.06,South,189,3.1,8.7,33,0.00,,---,0.08,VWS V14.01,2013-07-03 04:28:00,
2013-07-02 22:29:00,71.6,41.0,30.06,South,179,4.0,8.7,33,0.00,,---,0.08,VWS V14.01,2013-07-03 04:29:00,
2013-07-02 22:30:00,71.4,41.6,30.06,South,185,5.8,5.8,34,0.00,,---,0.08,VWS V14.01,2013-07-03 04:30:00,
2013-07-02 22:31:00,71.4,41.6,30.06,SSW,193,4.9,5.8,34,0.00,,---,0.08,VWS V14.01,2013-07-03 04:31:00,
2013-07-02 22:32:00,71.4,41.6,30.06,South,183,4.0,5.8,34,0.00,,---,0.08,VWS V14.01,2013-07-03 04:32:00,
2013-07-02 22:35:00,71.2,41.5,30.06,South,176,3.6,5.8,34,0.00,,---,0.08,VWS V14.01,2013-07-03 04:35:00,
2013-07-02 22:36:00,71.2,40.7,30.06,SSE,148,3.6,5.8,33,0.00,,---,0.08,VWS V14.01,2013-07-03 04:36:00,
2013-07-02 22:37:00,71.2,40.7,30.06,SSE,149,3.1,5.8,33,0.00,,---,0.08,VWS V14.01,2013-07-03 04:37:00,
2013-07-02 22:41:00,71.1,41.3,30.06,SSW,201,3.6,5.8,34,0.00,,---,0.08,VWS V14.01,2013-07-03 04:41:00,
2013-07-02 22:42:00,70.9,41.1,30.06,SSE,158,3.6,5.8,34,0.00,,---,0.08,VWS V14.01,2013-07-03 04:42:00,
2013-07-02 22:45:00,70.7,41.0,30.06,South,181,3.1,5.8,34,0.00,,---,0.08,VWS V14.01,2013-07-03 04:45:00,
2013-07-02 22:46:00,70.5,40.8,30.06,South,175,3.1,3.6,34,0.00,,---,0.08,VWS V14.01,2013-07-03 04:46:00,
2013-07-02 22:47:00,70.3,40.7,30.06,South,173,2.2,3.6,34,0.00,,---,0.08,VWS V14.01,2013-07-03 04:47:00,
2013-07-02 22:50:00,70.2,40.5,30.06,South,182,2.2,3.6,34,0.00,,---,0.08,VWS V14.01,2013-07-03 04:50:00,
2013-07-02 22:51:00,70.0,41.1,30.06,South,177,2.7,3.6,35,0.00,,---,0.08,VWS V14.01,2013-07-03 04:51:00,
2013-07-02 22:52:00,70.0,41.1,30.06,South,177,0.0,3.6,35,0.00,,---,0.08,VWS V14.01,2013-07-03 04:52:00,
2013-07-02 22:53:00,70.0,41.1,30.06,South,185,2.7,3.6,35,0.00,,---,0.08,VWS V14.01,2013-07-03 04:53:00,
2013-07-02 22:55:00,69.6,40.8,30.06,South,183,2.7,3.6,35,0.00,,---,0.08,VWS V14.01,2013-07-03 04:55:00,
2013-07-02 22:57:00,69.6,40.8,30.06,SSW,195,3.6,4.5,35,0.00,,---,0.08,VWS V14.01,2013-07-03 04:57:00,
2013-07-02 22:58:00,69.6,40.0,30.06,South,190,4.9,4.9,34,0.00,,---,0.08,VWS V14.01,2013-07-03 04:58:00,
2013-07-02 23:01:00,70.3,40.7,30.06,South,184,4.0,4.0,34,0.00,,---,0.08,VWS V14.01,2013-07-03 05:01:00,
2013-07-02 23:02:00,70.5,40.1,30.06,South,186,3.6,4.9,33,0.00,,---,0.08,VWS V14.01,2013-07-03 05:02:00,
2013-07-02 23:03:00,70.5,40.1,30.06,South,182,3.6,4.9,33,0.00,,---,0.08,VWS V14.01,2013-07-03 05:03:00,
2013-07-02 23:06:00,71.1,40.5,30.06,SSW,195,4.0,4.9,33,0.00,,---,0.08,VWS V14.01,2013-07-03 05:06:00,
2013-07-02 23:07:00,71.4,40.0,30.06,SSW,197,4.0,4.9,32,0.00,,---,0.08,VWS V14.01,2013-07-03 05:07:00,
2013-07-02 23:08:00,71.6,40.2,30.06,South,187,3.6,4.9,32,0.00,,---,0.08,VWS V14.01,2013-07-03 05:08:00,
2013-07-02 23:11:00,72.1,39.9,30.06,SSW,195,4.0,5.8,31,0.00,,---,0.08,VWS V14.01,2013-07-03 05:11:00,
2013-07-02 23:12:00,72.3,40.0,30.06,SSW,193,4.9,5.8,31,0.00,,---,0.08,VWS V14.01,2013-07-03 05:12:00,
2013-07-02 23:13:00,72.7,38.6,30.06,SSW,197,5.4,5.8,29,0.00,,---,0.08,VWS V14.01,2013-07-03 05:13:00,
2013-07-02 23:16:00,73.8,37.7,30.06,South,190,5.4,5.4,27,0.00,,---,0.08,VWS V14.01,2013-07-03 05:16:00,
2013-07-02 23:17:00,73.9,36.9,30.06,SSW,207,5.8,5.8,26,0.00,,---,0.08,VWS V14.01,2013-07-03 05:17:00,
2013-07-02 23:18:00,74.5,37.4,30.06,SSW,198,4.9,5.8,26,0.00,,---,0.08,VWS V14.01,2013-07-03 05:18:00,
2013-07-02 23:19:00,74.8,37.7,30.06,SSW,195,5.4,5.8,26,0.00,,---,0.08,VWS V14.01,2013-07-03 05:19:00,
2013-07-02 23:22:00,75.4,37.2,30.06,South,191,4.0,5.8,25,0.00,,---,0.08,VWS V14.01,2013-07-03 05:22:00,
2013-07-02 23:23:00,75.6,36.3,30.06,SSW,196,5.4,5.8,24,0.00,,---,0.08,VWS V14.01,2013-07-03 05:23:00,
2013-07-02 23:24:00,75.6,36.3,30.06,SSW,195,4.0,5.8,24,0.00,,---,0.08,VWS V14.01,2013-07-03 05:24:00,
2013-07-02 23:27:00,75.9,36.6,30.06,SSW,196,4.9,5.8,24,0.00,,---,0.08,VWS V14.01,2013-07-03 05:27:00,
2013-07-02 23:28:00,75.9,35.5,30.06,South,181,5.4,5.8,23,0.00,,---,0.08,VWS V14.01,2013-07-03 05:28:00,
2013-07-02 23:29:00,76.1,35.7,30.06,SSW,192,5.4,5.8,23,0.00,,---,0.08,VWS V14.01,2013-07-03 05:29:00,
2013-07-02 23:32:00,76.3,34.7,30.06,South,183,4.0,5.4,22,0.00,,---,0.08,VWS V14.01,2013-07-03 05:32:00,
2013-07-02 23:33:00,76.3,35.8,30.06,SSW,197,3.6,5.4,23,0.00,,---,0.08,VWS V14.01,2013-07-03 05:33:00,
2013-07-02 23:35:00,76.3,34.7,30.06,SSW,196,4.5,5.4,22,0.00,,---,0.08,VWS V14.01,2013-07-03 05:35:00,
2013-07-02 23:37:00,76.3,34.7,30.06,SSW,196,4.5,5.4,22,0.00,,---,0.08,VWS V14.01,2013-07-03 05:37:00,
2013-07-02 23:38:00,76.3,34.7,30.06,South,189,4.0,5.4,22,0.00,,---,0.08,VWS V14.01,2013-07-03 05:38:00,
2013-07-02 23:39:00,76.3,35.8,30.06,South,189,2.7,5.4,23,0.00,,---,0.08,VWS V14.01,2013-07-03 05:39:00,
2013-07-02 23:42:00,75.7,36.4,30.06,South,175,2.7,5.4,24,0.00,,---,0.08,VWS V14.01,2013-07-03 05:42:00,
2013-07-02 23:43:00,75.4,36.1,30.06,South,178,3.1,5.4,24,0.00,,---,0.08,VWS V14.01,2013-07-03 05:43:00,
2013-07-02 23:44:00,75.0,36.8,30.06,South,175,2.7,5.4,25,0.00,,---,0.08,VWS V14.01,2013-07-03 05:44:00,
2013-07-02 23:48:00,73.6,36.6,30.06,South,177,3.1,3.1,26,0.00,,---,0.08,VWS V14.01,2013-07-03 05:48:00,
2013-07-02 23:49:00,73.6,36.6,30.06,South,183,2.7,3.1,26,0.00,,---,0.08,VWS V14.01,2013-07-03 05:49:00,
2013-07-02 23:53:00,72.1,38.2,30.06,South,184,0.0,3.6,29,0.00,,---,0.08,VWS V14.01,2013-07-03 05:53:00,
2013-07-02 23:54:00,72.0,38.0,30.06,South,184,0.0,3.6,29,0.00,,---,0.08,VWS V14.01,2013-07-03 05:54:00,
2013-07-02 23:56:00,71.6,37.7,30.06,South,184,0.0,3.6,29,0.00,,---,0.08,VWS V14.01,2013-07-03 05:56:00,
2013-07-02 23:58:00,71.1,38.9,30.06,South,186,0.0,3.6,31,0.00,,---,0.08,VWS V14.01,2013-07-03 05:58:00,
2013-07-02 23:59:00,70.9,38.8,30.06,South,186,0.0,3.6,31,0.00,,---,0.08,VWS V14.01,2013-07-03 05:59:00,